DW7566 Weather Reports


Display with metric or nautical units.
time (UTC)temp
F
wind
direction
speed
MPH
gust
MPH
rain 1hr
in
rain 24hr
in
rain mn
in
humidity
%
barometer
mb
20181116055734 31 275 1.0 5.0 0.00 0.00 0.00 71 1005.8
20181116055645 31 300 1.0 5.0 0.00 0.00 0.00 72 1005.8
20181116055536 31 73 0.0 2.0 0.00 0.00 0.00 72 1005.8
20181116055428 31 247 0.0 1.0 0.00 0.00 0.00 72 1005.8
20181116055338 31 249 0.0 1.0 0.00 0.00 0.00 72 1005.7
20181116055229 31 183 0.0 1.0 0.00 0.00 0.00 72 1005.7
20181116055140 31 142 0.0 1.0 0.00 0.00 0.00 72 1005.7
20181116055032 31 142 0.0 1.0 0.00 0.00 0.00 72 1005.7
20181116054941 31 141 0.0 1.0 0.00 0.00 0.00 72 1005.8
20181116054831 31 142 0.0 1.0 0.00 0.00 0.00 72 1005.7
20181116054742 31 145 0.0 1.0 0.00 0.00 0.00 72 1005.8
20181116054633 31 246 0.0 1.0 0.00 0.00 0.00 72 1005.8
20181116054542 31 251 0.0 1.0 0.00 0.00 0.00 72 1005.9
20181116054434 31 251 0.0 1.0 0.00 0.00 0.00 71 1006.0
20181116054345 31 251 0.0 1.0 0.00 0.00 0.00 71 1005.9
20181116054237 31 251 0.0 1.0 0.00 0.00 0.00 71 1005.9
20181116054127 31 251 0.0 1.0 0.00 0.00 0.00 71 1006.0
20181116054036 31 263 0.0 1.0 0.00 0.00 0.00 71 1006.0
20181116053927 31 263 0.0 1.0 0.00 0.00 0.00 70 1005.9
20181116053839 31 263 0.0 1.0 0.00 0.00 0.00 70 1006.0
20181116053730 31 263 0.0 1.0 0.00 0.00 0.00 70 1006.0
20181116053640 31 263 0.0 1.0 0.00 0.00 0.00 70 1006.0
20181116053531 31 263 0.0 1.0 0.00 0.00 0.00 70 1005.9
20181116053441 31 263 0.0 2.0 0.00 0.00 0.00 70 1006.0
20181116053332 31 263 0.0 2.0 0.00 0.00 0.00 70 1005.9
20181116053242 31 263 0.0 2.0 0.00 0.00 0.00 70 1005.9
20181116053132 31 263 0.0 2.0 0.00 0.00 0.00 70 1005.9
20181116053042 31 263 0.0 2.0 0.00 0.00 0.00 70 1005.9
20181116052932 31 263 0.0 2.0 0.00 0.00 0.00 70 1006.0
20181116052844 31 263 0.0 2.0 0.00 0.00 0.00 69 1006.0
20181116052734 31 263 0.0 2.0 0.00 0.00 0.00 69 1005.9
20181116052642 31 263 0.0 2.0 0.00 0.00 0.00 69 1005.9
20181116052538 32 299 0.0 0.0 0.00 0.00 0.00 69 1005.9
20181116052429 32 334 0.0 0.0 0.00 0.00 0.00 69 1005.9
20181116052341 32 334 0.0 0.0 0.00 0.00 0.00 69 1006.0
20181116052231 32 334 0.0 1.0 0.00 0.00 0.00 69 1005.9
20181116052137 32 329 0.0 1.0 0.00 0.00 0.00 69 1005.9
20181116052031 32 69 0.0 2.0 0.00 0.00 0.00 69 1005.9
20181116051942 32 70 0.0 2.0 0.00 0.00 0.00 69 1005.9
20181116051834 32 69 0.0 2.0 0.00 0.00 0.00 69 1005.9
20181116051746 32 70 0.0 2.0 0.00 0.00 0.00 69 1006.0
20181116051633 32 69 0.0 2.0 0.00 0.00 0.00 69 1005.9
20181116051529 32 69 0.0 2.0 0.00 0.00 0.00 69 1005.9
20181116051441 32 70 0.0 2.0 0.00 0.00 0.00 69 1005.9
20181116051331 32 4 0.0 2.0 0.00 0.00 0.00 69 1005.9
20181116051243 32 317 0.0 2.0 0.00 0.00 0.00 69 1005.8
20181116051131 32 322 0.0 2.0 0.00 0.00 0.00 69 1005.9
20181116051027 32 320 1.0 2.0 0.00 0.00 0.00 69 1005.9
20181116050938 32 261 1.0 2.0 0.00 0.00 0.00 69 1005.9
20181116050830 32 301 0.0 1.0 0.00 0.00 0.00 69 1005.9
20181116050741 32 304 0.0 1.0 0.00 0.00 0.00 69 1006.0
20181116050629 32 306 0.0 1.0 0.00 0.00 0.00 68 1006.0
20181116050544 32 306 0.0 2.0 0.00 0.00 0.00 68 1006.0
20181116050436 32 135 0.0 4.0 0.00 0.00 0.00 69 1006.0
20181116050346 32 134 0.0 4.0 0.00 0.00 0.00 69 1006.1
20181116050249 32 263 0.0 4.0 0.00 0.00 0.00 69 1006.1
20181116050143 32 263 1.0 4.0 0.00 0.00 0.00 68 1006.1
20181116050037 32 359 0.0 4.0 0.00 0.00 0.00 68 1006.1
20181116045928 32 259 0.0 4.0 0.00 0.00 0.00 68 1006.2
20181116045840 32 259 1.0 4.0 0.00 0.00 0.00 68 1006.2
20181116045731 32 259 2.0 4.0 0.00 0.00 0.00 69 1006.2
20181116045639 32 227 2.0 4.0 0.00 0.00 0.00 69 1006.2
20181116045536 32 241 1.0 5.0 0.00 0.00 0.00 69 1006.3
20181116045447 32 306 1.0 1.0 0.00 0.00 0.00 69 1006.3
20181116045339 32 282 0.0 1.0 0.00 0.00 0.00 69 1006.3
20181116045232 32 249 0.0 1.0 0.00 0.00 0.00 69 1006.3
20181116045139 32 235 0.0 1.0 0.00 0.00 0.00 69 1006.2
20181116045035 32 224 0.0 1.0 0.00 0.00 0.00 69 1006.2
20181116044946 32 225 0.0 2.0 0.00 0.00 0.00 69 1006.2
20181116044837 32 49 0.0 1.0 0.00 0.00 0.00 69 1006.3
20181116044729 32 48 0.0 2.0 0.00 0.00 0.00 69 1006.3
20181116044638 32 48 0.0 2.0 0.00 0.00 0.00 69 1006.4
20181116044532 32 48 0.0 2.0 0.00 0.00 0.00 69 1006.4
20181116044443 32 49 0.0 2.0 0.00 0.00 0.00 69 1006.5
20181116044333 32 49 0.0 2.0 0.00 0.00 0.00 69 1006.5
20181116044244 32 49 0.0 2.0 0.00 0.00 0.00 69 1006.5
20181116044131 32 49 0.0 2.0 0.00 0.00 0.00 69 1006.5
20181116044027 32 49 1.0 6.0 0.00 0.00 0.00 68 1006.6
20181116043938 32 48 1.0 6.0 0.00 0.00 0.00 68 1006.6
20181116043828 32 87 0.0 6.0 0.00 0.00 0.00 68 1006.6
20181116043739 32 87 0.0 6.0 0.00 0.00 0.00 68 1006.7
20181116043647 32 87 0.0 6.0 0.00 0.00 0.00 68 1006.8
20181116043543 32 351 0.0 6.0 0.00 0.00 0.00 69 1006.8
20181116043433 32 349 1.0 6.0 0.00 0.00 0.00 68 1006.8
20181116043343 32 240 2.0 6.0 0.00 0.00 0.00 68 1006.8
20181116043233 32 244 3.0 6.0 0.00 0.00 0.00 68 1006.9
20181116043139 32 275 3.0 5.0 0.00 0.00 0.00 68 1006.8
20181116043033 32 276 2.0 4.0 0.00 0.00 0.00 68 1007.0
20181116042941 32 303 0.0 3.0 0.00 0.00 0.00 68 1007.0
20181116042832 32 197 0.0 3.0 0.00 0.00 0.00 68 1007.0
20181116042742 32 198 0.0 3.0 0.00 0.00 0.00 69 1006.9
20181116042629 32 53 1.0 3.0 0.00 0.00 0.00 68 1007.0
20181116042540 32 101 1.0 3.0 0.00 0.00 0.00 68 1007.0
20181116042435 32 114 1.0 3.0 0.00 0.00 0.00 68 1007.0
20181116042345 32 114 0.0 3.0 0.00 0.00 0.00 68 1007.0
20181116042235 32 263 1.0 3.0 0.00 0.00 0.00 69 1007.0
20181116042142 32 263 2.0 3.0 0.00 0.00 0.00 69 1007.0
20181116042034 32 269 1.0 3.0 0.00 0.00 0.00 69 1007.1
20181116041930 32 244 0.0 3.0 0.00 0.00 0.00 69 1007.1
20181116041840 32 21 0.0 3.0 0.00 0.00 0.00 69 1007.1
20181116041731 32 256 1.0 3.0 0.00 0.00 0.00 68 1007.1
20181116041638 32 6 1.0 5.0 0.00 0.00 0.00 68 1007.1
20181116041528 32 28 1.0 5.0 0.00 0.00 0.00 68 1007.1
20181116041444 32 55 0.0 5.0 0.00 0.00 0.00 68 1007.1
20181116041333 32 67 0.0 5.0 0.00 0.00 0.00 68 1007.1
20181116041245 32 67 0.0 5.0 0.00 0.00 0.00 68 1007.1
20181116041133 32 66 0.0 5.0 0.00 0.00 0.00 68 1007.1
20181116041044 32 66 0.0 5.0 0.00 0.00 0.00 68 1007.2
20181116040937 32 64 1.0 5.0 0.00 0.00 0.00 68 1007.1
20181116040827 32 246 1.0 5.0 0.00 0.00 0.00 68 1007.2
20181116040739 32 40 0.0 1.0 0.00 0.00 0.00 68 1007.2
20181116040645 32 40 0.0 1.0 0.00 0.00 0.00 68 1007.2
20181116040536 32 40 0.0 2.0 0.00 0.00 0.00 68 1007.1
20181116040431 32 40 0.0 7.0 0.00 0.00 0.00 68 1007.1
20181116040341 32 40 0.0 7.0 0.00 0.00 0.00 68 1007.2
20181116040244 32 40 0.0 7.0 0.00 0.00 0.00 68 1007.2
20181116040136 32 40 0.0 7.0 0.00 0.00 0.00 68 1007.2
20181116040047 32 193 0.0 7.0 0.00 0.00 0.00 68 1007.3
20181116035941 32 194 0.0 7.0 0.00 0.00 0.00 68 1007.2
20181116035833 32 194 2.0 7.0 0.00 0.00 0.00 67 1007.3
20181116035742 32 195 2.0 7.0 0.00 0.00 0.00 67 1007.3
20181116035630 32 241 0.0 5.0 0.00 0.00 0.00 68 1007.3
20181116035541 32 88 0.0 5.0 0.00 0.00 0.00 68 1007.4
20181116035436 32 88 1.0 5.0 0.00 0.00 0.00 68 1007.4
20181116035328 32 95 1.0 5.0 0.00 0.00 0.00 67 1007.5
20181116035238 32 201 1.0 5.0 0.00 0.00 0.00 67 1007.5
20181116035145 32 218 2.0 5.0 0.00 0.00 0.00 67 1007.5
20181116035036 32 213 1.0 5.0 0.00 0.00 0.00 67 1007.4
20181116034932 32 137 0.0 4.0 0.00 0.00 0.00 67 1007.5
20181116034844 32 137 0.0 4.0 0.00 0.00 0.00 67 1007.4
20181116034736 32 87 1.0 4.0 0.00 0.00 0.00 67 1007.4
20181116034645 32 7 2.0 4.0 0.00 0.00 0.00 68 1007.4
20181116034535 32 251 2.0 5.0 0.00 0.00 0.00 67 1007.4
20181116034430 32 246 2.0 5.0 0.00 0.00 0.00 67 1007.4
20181116034342 32 45 2.0 5.0 0.00 0.00 0.00 67 1007.4
20181116034235 32 216 2.0 5.0 0.00 0.00 0.00 67 1007.4
20181116034144 32 270 1.0 5.0 0.00 0.00 0.00 67 1007.4
20181116034037 32 142 1.0 5.0 0.00 0.00 0.00 67 1007.4
20181116033931 32 282 0.0 5.0 0.00 0.00 0.00 67 1007.4
20181116033841 32 268 1.0 5.0 0.00 0.00 0.00 67 1007.4
20181116033730 32 116 1.0 5.0 0.00 0.00 0.00 67 1007.4
20181116033638 32 152 1.0 5.0 0.00 0.00 0.00 67 1007.4
20181116033530 32 339 1.0 5.0 0.00 0.00 0.00 68 1007.4
20181116033440 33 4 0.0 5.0 0.00 0.00 0.00 67 1007.4
20181116033336 33 241 1.0 5.0 0.00 0.00 0.00 67 1007.5
20181116033246 33 152 2.0 5.0 0.00 0.00 0.00 67 1007.5
20181116033132 33 313 1.0 5.0 0.00 0.00 0.00 67 1007.5
20181116033042 33 290 0.0 3.0 0.00 0.00 0.00 67 1007.5
20181116032933 33 290 0.0 3.0 0.00 0.00 0.00 67 1007.6
20181116032827 33 131 0.0 3.0 0.00 0.00 0.00 67 1007.6
20181116032738 33 131 1.0 3.0 0.00 0.00 0.00 67 1007.6
20181116032646 33 156 1.0 3.0 0.00 0.00 0.00 67 1007.6
20181116032538 33 283 1.0 3.0 0.00 0.00 0.00 67 1007.6
20181116032430 33 128 1.0 3.0 0.00 0.00 0.00 67 1007.7
20181116032327 33 209 1.0 4.0 0.00 0.00 0.00 67 1007.8
20181116032239 33 159 1.0 4.0 0.00 0.00 0.00 67 1007.8
20181116032129 33 92 1.0 4.0 0.00 0.00 0.00 67 1007.8
20181116032041 33 173 1.0 4.0 0.00 0.00 0.00 68 1007.8
20181116031934 33 313 1.0 4.0 0.00 0.00 0.00 68 1007.8
20181116031829 33 97 1.0 4.0 0.00 0.00 0.00 68 1007.9
20181116031741 33 178 1.0 4.0 0.00 0.00 0.00 67 1007.9
20181116031627 33 242 1.0 4.0 0.00 0.00 0.00 67 1007.9
20181116031541 33 186 0.0 3.0 0.00 0.00 0.00 67 1007.9
20181116031431 33 113 0.0 3.0 0.00 0.00 0.00 67 1007.9
20181116031345 33 113 0.0 3.0 0.00 0.00 0.00 67 1007.9
20181116031236 33 114 0.0 3.0 0.00 0.00 0.00 67 1007.9
20181116031144 33 113 0.0 4.0 0.00 0.00 0.00 67 1007.9
20181116031035 33 119 1.0 4.0 0.00 0.00 0.00 67 1007.9
20181116030945 33 165 1.0 4.0 0.00 0.00 0.00 67 1007.9
20181116030839 33 121 1.0 4.0 0.00 0.00 0.00 67 1007.9
20181116030729 33 275 1.0 4.0 0.00 0.00 0.00 68 1008.0
20181116030636 33 249 0.0 4.0 0.00 0.00 0.00 68 1008.1
20181116030528 33 201 0.0 4.0 0.00 0.00 0.00 68 1008.0
20181116030438 33 12 1.0 4.0 0.00 0.00 0.00 68 1008.0
20181116030332 33 349 1.0 4.0 0.00 0.00 0.00 68 1008.1
20181116030255 33 119 0.0 3.0 0.00 0.00 0.00 68 1008.1
20181116030127 33 152 0.0 3.0 0.00 0.00 0.00 68 1008.1
20181116030038 33 151 0.0 3.0 0.00 0.00 0.00 68 1008.1
20181116025928 33 220 1.0 6.0 0.00 0.00 0.00 68 1008.1
20181116025843 33 269 1.0 6.0 0.00 0.00 0.00 68 1008.1
20181116025734 33 167 1.0 6.0 0.00 0.00 0.00 68 1008.2
20181116025642 33 4 1.0 6.0 0.00 0.00 0.00 67 1008.1
20181116025532 33 33 0.0 6.0 0.00 0.00 0.00 67 1008.2
20181116025443 33 11 1.0 6.0 0.00 0.00 0.00 67 1008.2
20181116025337 33 11 2.0 6.0 0.00 0.00 0.00 68 1008.2
20181116025228 33 258 3.0 6.0 0.00 0.00 0.00 68 1008.2
20181116025135 33 126 2.0 6.0 0.00 0.00 0.00 68 1008.2
20181116025045 33 277 1.0 6.0 0.00 0.00 0.00 68 1008.2
20181116024935 33 33 0.0 4.0 0.00 0.00 0.00 68 1008.2
20181116024830 33 33 1.0 4.0 0.00 0.00 0.00 67 1008.3
20181116024742 33 21 1.0 4.0 0.00 0.00 0.00 67 1008.3
20181116024629 33 25 1.0 4.0 0.00 0.00 0.00 67 1008.3
20181116024540 33 17 1.0 4.0 0.00 0.00 0.00 67 1008.4
20181116024433 33 275 1.0 4.0 0.00 0.00 0.00 67 1008.4
20181116024329 33 149 2.0 4.0 0.00 0.00 0.00 67 1008.5
20181116024241 33 152 2.0 4.0 0.00 0.00 0.00 67 1008.5
20181116024146 33 220 2.0 3.0 0.00 0.00 0.00 67 1008.6
20181116024037 33 221 1.0 6.0 0.00 0.00 0.00 67 1008.6
20181116023928 33 244 2.0 6.0 0.00 0.00 0.00 67 1008.6
20181116023839 33 259 1.0 6.0 0.00 0.00 0.00 67 1008.7
20181116023734 33 105 1.0 6.0 0.00 0.00 0.00 67 1008.7
20181116023642 33 258 2.0 6.0 0.00 0.00 0.00 67 1008.7
20181116023533 33 213 2.0 6.0 0.00 0.00 0.00 67 1008.7
20181116023444 33 241 2.0 6.0 0.00 0.00 0.00 67 1008.7
20181116023231 33 268 1.0 6.0 0.00 0.00 0.00 67 1008.8
20181116023137 33 283 1.0 5.0 0.00 0.00 0.00 67 1008.8
20181116023028 33 283 1.0 5.0 0.00 0.00 0.00 67 1008.8
20181116022939 33 145 1.0 5.0 0.00 0.00 0.00 67 1008.8
20181116022831 33 151 1.0 5.0 0.00 0.00 0.00 67 1008.8
20181116022746 33 329 1.0 5.0 0.00 0.00 0.00 67 1008.7
20181116022634 33 273 2.0 5.0 0.00 0.00 0.00 67 1008.7
20181116022545 33 244 1.0 5.0 0.00 0.00 0.00 67 1008.7
20181116022437 33 263 1.0 5.0 0.00 0.00 0.00 67 1008.7
20181116022329 33 234 2.0 5.0 0.00 0.00 0.00 67 1008.8
20181116022243 33 93 2.0 5.0 0.00 0.00 0.00 67 1008.8
20181116022131 33 111 1.0 5.0 0.00 0.00 0.00 67 1008.8
20181116022041 33 67 0.0 5.0 0.00 0.00 0.00 67 1008.8
20181116021933 33 183 1.0 5.0 0.00 0.00 0.00 67 1008.8
20181116021844 33 178 2.0 5.0 0.00 0.00 0.00 67 1008.8
20181116021740 33 67 1.0 6.0 0.00 0.00 0.00 67 1008.9
20181116021628 33 201 1.0 3.0 0.00 0.00 0.00 67 1008.9
20181116021538 33 203 1.0 3.0 0.00 0.00 0.00 66 1009.0
20181116021430 33 149 1.0 3.0 0.00 0.00 0.00 66 1009.0
20181116021341 33 149 1.0 3.0 0.00 0.00 0.00 66 1009.1
20181116021235 33 251 2.0 3.0 0.00 0.00 0.00 66 1009.0
20181116021140 33 176 2.0 4.0 0.00 0.00 0.00 66 1009.0
20181116021032 33 237 1.0 4.0 0.00 0.00 0.00 66 1009.1
20181116020944 33 224 1.0 4.0 0.00 0.00 0.00 66 1009.1
20181116020834 33 240 1.0 4.0 0.00 0.00 0.00 66 1009.1
20181116020730 33 265 0.0 4.0 0.00 0.00 0.00 66 1009.1
20181116020638 33 265 0.0 4.0 0.00 0.00 0.00 66 1009.1
20181116020528 33 159 0.0 4.0 0.00 0.00 0.00 66 1009.1
20181116020439 33 159 1.0 5.0 0.00 0.00 0.00 66 1009.2
20181116020330 33 216 1.0 5.0 0.00 0.00 0.00 66 1009.2
20181116020258 33 228 1.0 5.0 0.00 0.00 0.00 65 1009.2
20181116020131 33 148 2.0 5.0 0.00 0.00 0.00 65 1009.2
20181116020043 33 110 2.0 5.0 0.00 0.00 0.00 65 1009.2
20181116015934 33 227 1.0 5.0 0.00 0.00 0.00 65 1009.3
20181116015845 33 241 1.0 5.0 0.00 0.00 0.00 65 1009.3
20181116015738 33 98 1.0 5.0 0.00 0.00 0.00 65 1009.3
20181116015646 33 126 2.0 5.0 0.00 0.00 0.00 65 1009.4
20181116015537 33 322 2.0 5.0 0.00 0.00 0.00 65 1009.2
20181116015427 33 229 1.0 6.0 0.00 0.00 0.00 65 1009.3
20181116015340 33 255 0.0 7.0 0.00 0.00 0.00 65 1009.3
20181116015233 33 123 0.0 7.0 0.00 0.00 0.00 65 1009.3
20181116015140 33 156 1.0 7.0 0.00 0.00 0.00 65 1009.4
20181116015031 33 155 2.0 7.0 0.00 0.00 0.00 65 1009.4
20181116014943 33 251 2.0 7.0 0.00 0.00 0.00 65 1009.4
20181116014833 33 241 1.0 7.0 0.00 0.00 0.00 64 1009.5
20181116014729 33 116 2.0 7.0 0.00 0.00 0.00 64 1009.5
20181116014635 33 258 3.0 7.0 0.00 0.00 0.00 64 1009.5
20181116014528 33 256 3.0 7.0 0.00 0.00 0.00 64 1009.6
20181116014439 33 254 3.0 7.0 0.00 0.00 0.00 64 1009.6
20181116014330 34 282 2.0 7.0 0.00 0.00 0.00 64 1009.6
20181116014242 34 275 2.0 7.0 0.00 0.00 0.00 64 1009.6
20181116014132 34 251 3.0 7.0 0.00 0.00 0.00 64 1009.6
20181116014045 34 196 3.0 7.0 0.00 0.00 0.00 64 1009.6
20181116013936 34 193 3.0 7.0 0.00 0.00 0.00 64 1009.6
20181116013846 34 224 4.0 7.0 0.00 0.00 0.00 64 1009.7
20181116013736 34 259 3.0 7.0 0.00 0.00 0.00 64 1009.6
20181116013628 34 255 3.0 7.0 0.00 0.00 0.00 64 1009.7
20181116013540 34 249 3.0 8.0 0.00 0.00 0.00 64 1009.7
20181116013433 34 246 2.0 8.0 0.00 0.00 0.00 64 1009.7
20181116013344 34 235 3.0 8.0 0.00 0.00 0.00 64 1009.7
20181116013234 34 279 3.0 8.0 0.00 0.00 0.00 64 1009.8
20181116013146 34 241 3.0 8.0 0.00 0.00 0.00 64 1009.8
20181116013036 34 224 3.0 8.0 0.00 0.00 0.00 64 1009.8
20181116012946 34 270 3.0 8.0 0.00 0.00 0.00 64 1009.8
20181116012839 34 263 3.0 8.0 0.00 0.00 0.00 64 1009.8
20181116012728 34 241 3.0 8.0 0.00 0.00 0.00 64 1009.8
20181116012638 34 241 3.0 8.0 0.00 0.00 0.00 64 1009.7
20181116012529 34 111 2.0 7.0 0.00 0.00 0.00 64 1009.7
20181116012439 34 228 1.0 7.0 0.00 0.00 0.00 64 1009.8
20181116012331 34 102 1.0 7.0 0.00 0.00 0.00 64 1009.8
20181116012242 34 102 3.0 7.0 0.00 0.00 0.00 64 1009.8
20181116012134 33 211 3.0 7.0 0.00 0.00 0.00 64 1009.8
20181116012047 33 249 3.0 7.0 0.00 0.00 0.00 64 1009.8
20181116011937 33 291 2.0 6.0 0.00 0.00 0.00 65 1009.9
20181116011829 33 254 2.0 6.0 0.00 0.00 0.00 65 1009.9
20181116011741 33 118 2.0 6.0 0.00 0.00 0.00 65 1009.9
20181116011632 33 251 3.0 6.0 0.00 0.00 0.00 65 1009.9
20181116011543 33 252 4.0 6.0 0.00 0.00 0.00 65 1009.8
20181116011433 33 255 3.0 6.0 0.00 0.00 0.00 65 1009.9
20181116011343 33 286 2.0 5.0 0.00 0.00 0.00 66 1009.9
20181116011234 33 204 1.0 3.0 0.00 0.00 0.00 65 1009.9
20181116011146 33 204 1.0 3.0 0.00 0.00 0.00 65 1009.9
20181116011038 33 227 0.0 3.0 0.00 0.00 0.00 66 1010.0
20181116010929 33 252 1.0 3.0 0.00 0.00 0.00 66 1009.9
20181116010835 33 234 2.0 4.0 0.00 0.00 0.00 66 1009.9
20181116010745 33 272 1.0 3.0 0.00 0.00 0.00 66 1010.0
20181116010637 33 225 1.0 3.0 0.00 0.00 0.00 66 1009.9
20181116010527 33 275 1.0 3.0 0.00 0.00 0.00 66 1009.9
20181116010439 33 275 2.0 3.0 0.00 0.00 0.00 66 1009.9
20181116010330 33 261 1.0 3.0 0.00 0.00 0.00 66 1009.9
20181116010254 33 256 1.0 3.0 0.00 0.00 0.00 66 1009.9
20181116010128 33 172 1.0 3.0 0.00 0.00 0.00 66 1009.9
20181116010040 33 265 1.0 3.0 0.00 0.00 0.00 66 1009.9
20181116005930 33 131 1.0 3.0 0.00 0.00 0.00 66 1009.8
20181116005839 33 239 1.0 3.0 0.00 0.00 0.00 66 1009.9
20181116005729 33 236 0.0 2.0 0.00 0.00 0.00 66 1009.9
20181116005636 33 237 0.0 2.0 0.00 0.00 0.00 66 1009.9
20181116005531 33 136 0.0 2.0 0.00 0.00 0.00 65 1009.9
20181116005443 33 135 0.0 2.0 0.00 0.00 0.00 65 1009.9
20181116005334 33 276 0.0 2.0 0.00 0.00 0.00 65 1009.9
20181116005245 33 33 0.0 2.0 0.00 0.00 0.00 65 1009.9
20181116005132 33 18 0.0 2.0 0.00 0.00 0.00 65 1009.9
20181116005027 33 33 1.0 2.0 0.00 0.00 0.00 65 1009.9
20181116004939 33 25 1.0 3.0 0.00 0.00 0.00 65 1009.9
20181116004828 33 137 1.0 2.0 0.00 0.00 0.00 65 1009.9
20181116004738 33 128 1.0 2.0 0.00 0.00 0.00 65 1009.9
20181116004646 33 64 0.0 1.0 0.00 0.00 0.00 64 1009.9
20181116004541 33 110 0.0 1.0 0.00 0.00 0.00 64 1009.9
20181116004432 34 110 0.0 2.0 0.00 0.00 0.00 64 1009.9
20181116004341 34 111 0.0 2.0 0.00 0.00 0.00 64 1009.9
20181116004231 34 110 0.0 2.0 0.00 0.00 0.00 64 1009.9
20181116004138 34 2 0.0 2.0 0.00 0.00 0.00 63 1009.9
20181116004032 34 349 0.0 3.0 0.00 0.00 0.00 63 1009.9
20181116003942 34 349 0.0 3.0 0.00 0.00 0.00 62 1009.9
20181116003832 34 349 0.0 3.0 0.00 0.00 0.00 62 1009.9
20181116003744 34 306 0.0 3.0 0.00 0.00 0.00 62 1009.8
20181116003631 34 306 1.0 3.0 0.00 0.00 0.00 62 1009.9
20181116003527 34 118 0.0 3.0 0.00 0.00 0.00 62 1009.9
20181116003438 34 118 1.0 3.0 0.00 0.00 0.00 62 1009.9
20181116003347 34 117 1.0 3.0 0.00 0.00 0.00 62 1009.8
20181116003238 34 113 2.0 4.0 0.00 0.00 0.00 61 1009.8
20181116003145 34 62 1.0 3.0 0.00 0.00 0.00 61 1009.9
20181116003041 34 63 1.0 3.0 0.00 0.00 0.00 61 1009.8
20181116002933 34 256 1.0 3.0 0.00 0.00 0.00 60 1009.9
20181116002845 34 341 1.0 3.0 0.00 0.00 0.00 60 1010.0
20181116002737 34 341 1.0 3.0 0.00 0.00 0.00 60 1009.9
20181116002645 34 210 1.0 3.0 0.00 0.00 0.00 60 1009.9
20181116002540 34 256 2.0 3.0 0.00 0.00 0.00 60 1009.9
20181116002430 34 265 1.0 3.0 0.00 0.00 0.00 60 1010.0
20181116002341 34 15 1.0 3.0 0.00 0.00 0.00 59 1009.9
20181116002230 34 92 0.0 3.0 0.00 0.00 0.00 59 1010.0
20181116002136 34 87 0.0 3.0 0.00 0.00 0.00 59 1009.9
20181116002031 34 86 1.0 3.0 0.00 0.00 0.00 59 1009.9
20181116001942 34 86 0.0 3.0 0.00 0.00 0.00 59 1009.9
20181116001832 35 30 0.0 3.0 0.00 0.00 0.00 59 1009.9
20181116001743 35 30 1.0 3.0 0.00 0.00 0.00 59 1009.9
20181116001629 35 31 2.0 3.0 0.00 0.00 0.00 58 1009.9
20181116001539 35 29 1.0 3.0 0.00 0.00 0.00 59 1009.9
20181116001434 35 42 0.0 3.0 0.00 0.00 0.00 58 1009.9
20181116001345 35 42 1.0 3.0 0.00 0.00 0.00 58 1009.9
20181116001237 35 42 1.0 3.0 0.00 0.00 0.00 58 1009.9
20181116001144 35 42 2.0 3.0 0.00 0.00 0.00 58 1009.9
20181116001035 35 40 1.0 3.0 0.00 0.00 0.00 58 1009.9
20181116000931 35 36 0.0 2.0 0.00 0.00 0.00 58 1009.9
20181116000842 35 36 0.0 3.0 0.00 0.00 0.00 58 1009.9
20181116000734 35 36 1.0 3.0 0.00 0.00 0.00 58 1009.8
20181116000642 35 36 1.0 3.0 0.00 0.00 0.00 58 1009.8
20181116000532 35 36 1.0 3.0 0.00 0.00 0.00 58 1009.9
20181116000446 35 36 2.0 3.0 0.00 0.00 0.00 58 1009.8
20181116000337 35 36 1.0 3.0 0.00 0.00 0.00 58 1009.8
20181116000259 35 14 0.0 3.0 0.00 0.00 0.00 58 1009.8
20181116000132 34 302 1.0 3.0 0.00 0.00 0.00 58 1009.9
20181116000042 34 307 1.0 3.0 0.00 0.00 0.00 58 1009.8
20181115235936 34 43 1.0 2.0 0.00 0.00 0.00 58 1009.9
20181115235847 34 43 1.0 2.0 0.00 0.00 0.00 58 1009.9
20181115235737 34 272 0.0 1.0 0.00 0.00 0.00 58 1009.9
20181115235644 34 272 0.0 1.0 0.00 0.00 0.00 58 1009.9
20181115235535 34 272 0.0 2.0 0.00 0.00 0.00 58 1009.9
20181115235432 34 272 0.0 2.0 0.00 0.00 0.00 58 1010.0
20181115235343 34 272 0.0 2.0 0.00 0.00 0.00 58 1009.9
20181115235233 34 266 0.0 2.0 0.00 0.00 0.00 58 1010.0
20181115235140 34 266 1.0 2.0 0.00 0.00 0.00 58 1010.0
20181115235031 34 266 0.0 2.0 0.00 0.00 0.00 58 1010.0
20181115234945 34 35 0.0 2.0 0.00 0.00 0.00 59 1010.0
20181115234837 34 35 1.0 2.0 0.00 0.00 0.00 59 1010.0
20181115234728 34 35 1.0 2.0 0.00 0.00 0.00 58 1010.0
20181115234635 34 35 0.0 1.0 0.00 0.00 0.00 59 1010.0
20181115234544 34 36 0.0 1.0 0.00 0.00 0.00 59 1009.9
20181115234439 34 36 0.0 1.0 0.00 0.00 0.00 59 1009.9
20181115234329 34 36 0.0 2.0 0.00 0.00 0.00 59 1009.9
20181115234239 34 36 1.0 2.0 0.00 0.00 0.00 59 1009.9
20181115234145 33 36 1.0 2.0 0.00 0.00 0.00 59 1009.9
20181115234037 33 227 0.0 2.0 0.00 0.00 0.00 59 1009.9
20181115233932 33 227 0.0 2.0 0.00 0.00 0.00 59 1010.0
20181115233842 33 227 0.0 2.0 0.00 0.00 0.00 59 1010.0
20181115233732 33 227 0.0 2.0 0.00 0.00 0.00 59 1010.0
20181115233638 33 227 1.0 2.0 0.00 0.00 0.00 59 1010.0
20181115233530 33 227 1.0 2.0 0.00 0.00 0.00 59 1010.0
20181115233441 33 259 0.0 1.0 0.00 0.00 0.00 59 1010.0
20181115233337 33 259 0.0 1.0 0.00 0.00 0.00 59 1010.0
20181115233246 33 334 0.0 1.0 0.00 0.00 0.00 59 1010.0
20181115233134 33 334 0.0 1.0 0.00 0.00 0.00 59 1010.0
20181115233043 33 334 1.0 1.0 0.00 0.00 0.00 59 1010.0
20181115232935 33 236 0.0 1.0 0.00 0.00 0.00 59 1009.9
20181115232829 33 176 0.0 1.0 0.00 0.00 0.00 58 1009.9
20181115232740 33 176 0.0 1.0 0.00 0.00 0.00 58 1009.9
20181115232627 33 176 0.0 1.0 0.00 0.00 0.00 58 1009.9
20181115232540 33 176 0.0 1.0 0.00 0.00 0.00 57 1010.0
20181115232434 34 177 0.0 1.0 0.00 0.00 0.00 57 1009.9
20181115232328 34 176 0.0 1.0 0.00 0.00 0.00 57 1009.9
20181115232239 34 176 0.0 1.0 0.00 0.00 0.00 57 1009.8
20181115232146 34 176 0.0 1.0 0.00 0.00 0.00 56 1009.9
20181115232036 34 177 0.0 1.0 0.00 0.00 0.00 56 1009.8
20181115231927 34 80 0.0 1.0 0.00 0.00 0.00 55 1009.9
20181115231842 35 80 0.0 2.0 0.00 0.00 0.00 55 1009.8
20181115231734 35 80 0.0 2.0 0.00 0.00 0.00 54 1009.9
20181115231643 35 80 0.0 2.0 0.00 0.00 0.00 54 1009.8
20181115231533 35 80 0.0 2.0 0.00 0.00 0.00 54 1009.8
20181115231445 35 80 0.0 2.0 0.00 0.00 0.00 54 1009.8
20181115231340 35 80 0.0 2.0 0.00 0.00 0.00 54 1009.7
20181115231232 35 80 0.0 2.0 0.00 0.00 0.00 53 1009.7
20181115231137 35 80 1.0 2.0 0.00 0.00 0.00 53 1009.7
20181115231027 35 60 1.0 2.0 0.00 0.00 0.00 53 1009.7
20181115230940 35 73 0.0 2.0 0.00 0.00 0.00 53 1009.7
20181115230837 35 73 0.0 2.0 0.00 0.00 0.00 53 1009.7
20181115230727 35 72 0.0 2.0 0.00 0.00 0.00 53 1009.8
20181115230634 35 73 1.0 2.0 0.00 0.00 0.00 53 1009.7
20181115230543 35 72 1.0 2.0 0.00 0.00 0.00 53 1009.7
20181115230434 35 73 0.0 3.0 0.00 0.00 0.00 53 1009.7
20181115230329 35 73 1.0 3.0 0.00 0.00 0.00 53 1009.7
20181115230253 35 73 1.0 3.0 0.00 0.00 0.00 53 1009.7
20181115230144 36 80 1.0 3.0 0.00 0.00 0.00 52 1009.7
20181115230035 36 80 1.0 3.0 0.00 0.00 0.00 53 1009.7
20181115225944 36 232 1.0 3.0 0.00 0.00 0.00 53 1009.7
20181115225838 36 232 2.0 3.0 0.00 0.00 0.00 51 1009.8
20181115225729 36 40 1.0 3.0 0.00 0.00 0.00 51 1009.8
20181115225637 36 42 0.0 2.0 0.00 0.00 0.00 51 1009.8
20181115225527 36 161 0.0 2.0 0.00 0.00 0.00 51 1009.7
20181115225437 36 163 0.0 2.0 0.00 0.00 0.00 50 1009.7
20181115225332 36 161 1.0 2.0 0.00 0.00 0.00 50 1009.7
20181115225242 36 64 1.0 2.0 0.00 0.00 0.00 50 1009.7
20181115225131 36 353 0.0 2.0 0.00 0.00 0.00 50 1009.7
20181115225042 36 352 0.0 1.0 0.00 0.00 0.00 51 1009.8
20181115224933 37 352 1.0 1.0 0.00 0.00 0.00 50 1009.9
20181115224827 37 352 1.0 1.0 0.00 0.00 0.00 49 1009.9
20181115224738 37 351 1.0 1.0 0.00 0.00 0.00 49 1009.8
20181115224644 37 320 1.0 1.0 0.00 0.00 0.00 49 1009.9
20181115224535 37 159 0.0 2.0 0.00 0.00 0.00 49 1009.9
20181115224446 37 160 0.0 2.0 0.00 0.00 0.00 49 1009.9
20181115224336 37 159 0.0 2.0 0.00 0.00 0.00 49 1009.9
20181115224227 37 159 0.0 3.0 0.00 0.00 0.00 48 1010.0
20181115224134 37 160 0.0 3.0 0.00 0.00 0.00 48 1010.0
20181115224046 37 159 0.0 4.0 0.00 0.00 0.00 48 1010.0
20181115223938 37 160 0.0 4.0 0.00 0.00 0.00 48 1010.1
20181115223828 38 160 1.0 4.0 0.00 0.00 0.00 48 1010.1
20181115223744 38 160 1.0 4.0 0.00 0.00 0.00 48 1010.2
20181115223632 38 96 0.0 4.0 0.00 0.00 0.00 48 1010.3
20181115223542 38 97 0.0 4.0 0.00 0.00 0.00 48 1010.3
20181115223432 38 231 1.0 4.0 0.00 0.00 0.00 47 1010.3
20181115223343 38 247 2.0 4.0 0.00 0.00 0.00 47 1010.3
20181115223237 38 277 2.0 4.0 0.00 0.00 0.00 47 1010.3
20181115223146 38 237 1.0 4.0 0.00 0.00 0.00 47 1010.3
20181115223038 38 235 1.0 4.0 0.00 0.00 0.00 47 1010.4
20181115222929 38 258 2.0 4.0 0.00 0.00 0.00 47 1010.4
20181115222737 38 280 2.0 4.0 0.00 0.00 0.00 47 1010.4
20181115222645 38 262 2.0 3.0 0.00 0.00 0.00 47 1010.4
20181115222538 38 263 2.0 3.0 0.00 0.00 0.00 47 1010.4
20181115222430 38 228 2.0 3.0 0.00 0.00 0.00 47 1010.4
20181115222341 38 284 2.0 3.0 0.00 0.00 0.00 47 1010.3
20181115222237 38 244 1.0 3.0 0.00 0.00 0.00 46 1010.3
20181115222143 38 247 1.0 3.0 0.00 0.00 0.00 46 1010.3
20181115222035 38 252 0.0 2.0 0.00 0.00 0.00 46 1010.2
20181115221947 39 241 0.0 2.0 0.00 0.00 0.00 46 1010.2
20181115221837 39 238 0.0 2.0 0.00 0.00 0.00 45 1010.1
20181115221733 39 238 0.0 2.0 0.00 0.00 0.00 45 1010.1
20181115221639 39 78 1.0 3.0 0.00 0.00 0.00 45 1010.0
20181115221531 39 78 1.0 3.0 0.00 0.00 0.00 44 1010.0
20181115221442 39 225 0.0 3.0 0.00 0.00 0.00 44 1010.1
20181115221334 39 213 0.0 3.0 0.00 0.00 0.00 44 1010.1
20181115221228 39 235 0.0 3.0 0.00 0.00 0.00 44 1010.2
20181115221136 39 235 0.0 3.0 0.00 0.00 0.00 43 1010.2
20181115221028 40 237 1.0 3.0 0.00 0.00 0.00 43 1010.2
20181115220939 40 236 2.0 3.0 0.00 0.00 0.00 43 1010.3
20181115220830 40 227 2.0 3.0 0.00 0.00 0.00 43 1010.3
20181115220747 40 263 1.0 3.0 0.00 0.00 0.00 43 1010.3
20181115220636 40 280 1.0 2.0 0.00 0.00 0.00 42 1010.3
20181115220529 40 280 2.0 2.0 0.00 0.00 0.00 42 1010.3
20181115220441 40 214 1.0 2.0 0.00 0.00 0.00 43 1010.3
20181115220334 40 110 0.0 3.0 0.00 0.00 0.00 42 1010.4
20181115220302 40 111 1.0 3.0 0.00 0.00 0.00 42 1010.4
20181115220135 40 238 1.0 3.0 0.00 0.00 0.00 41 1010.5
20181115220045 40 266 1.0 3.0 0.00 0.00 0.00 41 1010.5
20181115215936 41 72 1.0 3.0 0.00 0.00 0.00 41 1010.5
20181115215828 41 73 1.0 3.0 0.00 0.00 0.00 41 1010.6
20181115215743 41 179 1.0 3.0 0.00 0.00 0.00 41 1010.6
20181115215629 41 262 1.0 4.0 0.00 0.00 0.00 41 1010.6
20181115215541 41 237 2.0 4.0 0.00 0.00 0.00 41 1010.7
20181115215431 41 228 1.0 4.0 0.00 0.00 0.00 41 1010.6
20181115215343 41 262 1.0 4.0 0.00 0.00 0.00 41 1010.6
20181115215237 41 166 1.0 4.0 0.00 0.00 0.00 41 1010.6
20181115215144 41 244 1.0 4.0 0.00 0.00 0.00 41 1010.7
20181115215034 41 237 2.0 4.0 0.00 0.00 0.00 41 1010.7
20181115214944 41 238 2.0 4.0 0.00 0.00 0.00 41 1010.7
20181115214835 41 279 1.0 5.0 0.00 0.00 0.00 41 1010.6
20181115214731 41 159 0.0 3.0 0.00 0.00 0.00 41 1010.6
20181115214637 41 160 0.0 3.0 0.00 0.00 0.00 40 1010.7
20181115214528 41 160 0.0 3.0 0.00 0.00 0.00 41 1010.6
20181115214438 41 204 0.0 3.0 0.00 0.00 0.00 41 1010.6
20181115214330 41 263 0.0 3.0 0.00 0.00 0.00 41 1010.6
20181115214241 41 263 0.0 3.0 0.00 0.00 0.00 41 1010.6
20181115214132 41 263 1.0 3.0 0.00 0.00 0.00 41 1010.6
20181115214044 41 263 1.0 3.0 0.00 0.00 0.00 41 1010.6
20181115213934 41 263 1.0 3.0 0.00 0.00 0.00 41 1010.6
20181115213845 40 249 1.0 4.0 0.00 0.00 0.00 41 1010.6
20181115213736 40 259 1.0 5.0 0.00 0.00 0.00 40 1010.6
20181115213647 40 149 1.0 5.0 0.00 0.00 0.00 41 1010.7
20181115213539 40 254 1.0 6.0 0.00 0.00 0.00 41 1010.7
20181115213429 40 255 1.0 6.0 0.00 0.00 0.00 41 1010.7
20181115213339 40 238 1.0 6.0 0.00 0.00 0.00 40 1010.8
20181115213230 40 256 2.0 6.0 0.00 0.00 0.00 41 1010.7
20181115213140 40 237 2.0 6.0 0.00 0.00 0.00 40 1010.8
20181115213030 40 216 3.0 6.0 0.00 0.00 0.00 40 1010.9
20181115212941 40 217 3.0 6.0 0.00 0.00 0.00 40 1010.8
20181115212832 40 248 2.0 6.0 0.00 0.00 0.00 40 1010.9
20181115212744 40 237 2.0 6.0 0.00 0.00 0.00 41 1010.9
20181115212636 41 280 3.0 6.0 0.00 0.00 0.00 40 1010.9
20181115212527 41 223 4.0 6.0 0.00 0.00 0.00 40 1010.9
20181115212439 41 235 4.0 7.0 0.00 0.00 0.00 40 1010.9
20181115212329 41 273 3.0 7.0 0.00 0.00 0.00 40 1010.9
20181115212240 41 254 1.0 7.0 0.00 0.00 0.00 41 1010.9
20181115212130 41 114 1.0 7.0 0.00 0.00 0.00 41 1010.9
20181115212041 41 89 2.0 7.0 0.00 0.00 0.00 41 1010.9
20181115211931 41 256 2.0 7.0 0.00 0.00 0.00 41 1010.9
20181115211841 41 283 3.0 7.0 0.00 0.00 0.00 41 1010.9
20181115211733 42 230 4.0 7.0 0.00 0.00 0.00 40 1010.9
20181115211645 42 239 4.0 7.0 0.00 0.00 0.00 41 1010.9
20181115211534 42 262 4.0 7.0 0.00 0.00 0.00 41 1011.0
20181115211444 42 259 3.0 7.0 0.00 0.00 0.00 41 1011.0
20181115211334 42 253 1.0 7.0 0.00 0.00 0.00 41 1011.0
20181115211245 42 216 1.0 7.0 0.00 0.00 0.00 41 1011.0
20181115211137 42 251 2.0 7.0 0.00 0.00 0.00 41 1011.0
20181115211047 42 223 3.0 7.0 0.00 0.00 0.00 41 1011.0
20181115210938 43 210 3.0 7.0 0.00 0.00 0.00 41 1010.9
20181115210829 43 256 4.0 7.0 0.00 0.00 0.00 41 1010.9
20181115210739 43 256 5.0 7.0 0.00 0.00 0.00 40 1010.9
20181115210628 43 255 2.0 6.0 0.00 0.00 0.00 41 1010.9
20181115210540 43 244 1.0 6.0 0.00 0.00 0.00 42 1010.9
20181115210431 43 149 1.0 2.0 0.00 0.00 0.00 42 1011.0
20181115210342 43 142 1.0 3.0 0.00 0.00 0.00 42 1010.9
20181115210245 43 62 1.0 3.0 0.00 0.00 0.00 43 1011.0
20181115210138 43 64 0.0 3.0 0.00 0.00 0.00 44 1011.0
20181115210033 43 262 0.0 3.0 0.00 0.00 0.00 45 1011.0
20181115205944 43 273 0.0 3.0 0.00 0.00 0.00 45 1010.9
20181115205836 42 272 0.0 4.0 0.00 0.00 0.00 45 1011.0
20181115205729 42 273 1.0 4.0 0.00 0.00 0.00 45 1011.0
20181115205636 42 168 1.0 4.0 0.00 0.00 0.00 45 1011.0
20181115205532 42 271 1.0 5.0 0.00 0.00 0.00 44 1010.9
20181115205444 42 94 1.0 5.0 0.00 0.00 0.00 44 1011.0
20181115205335 42 93 1.0 5.0 0.00 0.00 0.00 45 1011.0
20181115205228 42 126 1.0 5.0 0.00 0.00 0.00 44 1011.1
20181115205136 42 152 2.0 5.0 0.00 0.00 0.00 45 1011.1
20181115205032 42 113 1.0 5.0 0.00 0.00 0.00 44 1011.1
20181115204945 42 227 1.0 5.0 0.00 0.00 0.00 44 1011.1
20181115204838 42 111 3.0 5.0 0.00 0.00 0.00 44 1011.3
20181115204730 42 256 3.0 5.0 0.00 0.00 0.00 43 1011.3
20181115204638 42 245 3.0 5.0 0.00 0.00 0.00 43 1011.3
20181115204533 43 268 2.0 4.0 0.00 0.00 0.00 43 1011.3
20181115204446 43 265 2.0 4.0 0.00 0.00 0.00 43 1011.3
20181115204336 43 12 2.0 4.0 0.00 0.00 0.00 43 1011.3
20181115204243 43 252 2.0 4.0 0.00 0.00 0.00 43 1011.3
20181115204131 43 252 2.0 4.0 0.00 0.00 0.00 43 1011.4
20181115204047 43 262 2.0 4.0 0.00 0.00 0.00 44 1011.4
20181115203939 43 234 1.0 3.0 0.00 0.00 0.00 45 1011.4
20181115203831 43 138 1.0 3.0 0.00 0.00 0.00 44 1011.4
20181115203744 43 135 1.0 3.0 0.00 0.00 0.00 45 1011.4
20181115203631 43 213 1.0 3.0 0.00 0.00 0.00 45 1011.3
20181115203528 43 148 0.0 3.0 0.00 0.00 0.00 44 1011.3
20181115203440 43 148 1.0 3.0 0.00 0.00 0.00 44 1011.3
20181115203332 43 148 2.0 4.0 0.00 0.00 0.00 46 1011.3
20181115203243 43 156 1.0 3.0 0.00 0.00 0.00 46 1011.3
20181115203131 43 269 1.0 2.0 0.00 0.00 0.00 46 1011.4
20181115203028 42 272 1.0 3.0 0.00 0.00 0.00 47 1011.4
20181115202939 42 242 1.0 8.0 0.00 0.00 0.00 47 1011.4
20181115202832 42 242 1.0 8.0 0.00 0.00 0.00 47 1011.5
20181115202743 42 242 1.0 8.0 0.00 0.00 0.00 47 1011.5
20181115202632 42 282 1.0 8.0 0.00 0.00 0.00 47 1011.5
20181115202545 42 266 1.0 8.0 0.00 0.00 0.00 47 1011.5
20181115202437 42 108 1.0 8.0 0.00 0.00 0.00 46 1011.5
20181115202328 42 93 2.0 8.0 0.00 0.00 0.00 46 1011.6
20181115202238 42 97 4.0 8.0 0.00 0.00 0.00 46 1011.6
20181115202146 42 132 4.0 8.0 0.00 0.00 0.00 46 1011.6
20181115202040 42 254 3.0 7.0 0.00 0.00 0.00 46 1011.6
20181115201931 42 275 2.0 6.0 0.00 0.00 0.00 46 1011.6
20181115201843 42 249 2.0 7.0 0.00 0.00 0.00 47 1011.6
20181115201732 42 241 2.0 6.0 0.00 0.00 0.00 47 1011.6
20181115201638 42 165 3.0 6.0 0.00 0.00 0.00 46 1011.6
20181115201533 42 98 3.0 6.0 0.00 0.00 0.00 46 1011.6
20181115201444 42 282 2.0 6.0 0.00 0.00 0.00 46 1011.6
20181115201335 42 85 1.0 4.0 0.00 0.00 0.00 46 1011.6
20181115201246 42 116 1.0 4.0 0.00 0.00 0.00 46 1011.6
20181115201132 42 114 1.0 4.0 0.00 0.00 0.00 46 1011.7
20181115201045 42 108 2.0 4.0 0.00 0.00 0.00 46 1011.7
20181115200936 42 217 3.0 4.0 0.00 0.00 0.00 45 1011.7
20181115200827 42 268 3.0 5.0 0.00 0.00 0.00 45 1011.7
20181115200738 42 244 2.0 4.0 0.00 0.00 0.00 45 1011.8
20181115200645 42 258 1.0 4.0 0.00 0.00 0.00 47 1011.8
20181115200541 42 224 1.0 3.0 0.00 0.00 0.00 47 1011.8
20181115200433 42 55 1.0 3.0 0.00 0.00 0.00 48 1011.8
20181115200343 42 134 1.0 3.0 0.00 0.00 0.00 48 1011.8
20181115200247 42 345 1.0 4.0 0.00 0.00 0.00 50 1011.9
20181115200139 41 273 1.0 5.0 0.00 0.00 0.00 50 1011.9
20181115200034 41 265 1.0 5.0 0.00 0.00 0.00 49 1011.9
20181115195945 41 237 1.0 5.0 0.00 0.00 0.00 49 1011.9
20181115195837 41 251 1.0 5.0 0.00 0.00 0.00 50 1011.9
20181115195728 41 116 2.0 5.0 0.00 0.00 0.00 50 1012.0
20181115195636 41 145 2.0 5.0 0.00 0.00 0.00 49 1012.0
20181115195531 41 246 2.0 5.0 0.00 0.00 0.00 50 1012.0
20181115195441 41 232 3.0 5.0 0.00 0.00 0.00 49 1012.0
20181115195332 41 137 2.0 5.0 0.00 0.00 0.00 49 1012.0
20181115195244 41 255 2.0 4.0 0.00 0.00 0.00 49 1012.0
20181115195130 41 123 3.0 4.0 0.00 0.00 0.00 48 1012.0
20181115195101 41 108 3.0 4.0 0.00 0.00 0.00 49 1012.0
20181115194732 41 88 1.0 4.0 0.00 0.00 0.00 49 1012.0
20181115194639 41 61 2.0 4.0 0.00 0.00 0.00 49 1012.0
20181115194529 41 84 1.0 6.0 0.00 0.00 0.00 49 1012.1
20181115194438 41 137 1.0 6.0 0.00 0.00 0.00 49 1012.1
20181115194328 41 123 1.0 6.0 0.00 0.00 0.00 49 1012.1
20181115194238 41 239 2.0 6.0 0.00 0.00 0.00 50 1012.2
20181115194129 41 110 2.0 6.0 0.00 0.00 0.00 49 1012.3
20181115194039 41 127 2.0 6.0 0.00 0.00 0.00 49 1012.3
20181115193930 41 95 2.0 6.0 0.00 0.00 0.00 50 1012.3
20181115193841 41 279 3.0 6.0 0.00 0.00 0.00 49 1012.3
20181115193731 41 241 4.0 6.0 0.00 0.00 0.00 48 1012.3
20181115193641 41 244 2.0 5.0 0.00 0.00 0.00 48 1012.3
20181115193530 41 253 2.0 5.0 0.00 0.00 0.00 47 1012.4
20181115193440 41 262 2.0 5.0 0.00 0.00 0.00 48 1012.4
20181115193329 41 126 2.0 5.0 0.00 0.00 0.00 48 1012.4
20181115193239 41 133 2.0 5.0 0.00 0.00 0.00 48 1012.4
20181115193130 41 230 3.0 5.0 0.00 0.00 0.00 48 1012.4
20181115193040 41 259 2.0 5.0 0.00 0.00 0.00 48 1012.5
20181115192930 41 223 2.0 6.0 0.00 0.00 0.00 49 1012.6
20181115192840 41 269 1.0 5.0 0.00 0.00 0.00 50 1012.5
20181115192730 41 141 1.0 4.0 0.00 0.00 0.00 48 1012.5
20181115192640 41 142 2.0 4.0 0.00 0.00 0.00 49 1012.6
20181115192530 41 291 1.0 4.0 0.00 0.00 0.00 49 1012.6
20181115192440 41 126 2.0 4.0 0.00 0.00 0.00 48 1012.6
20181115192329 41 252 1.0 4.0 0.00 0.00 0.00 49 1012.6
20181115192238 41 141 1.0 4.0 0.00 0.00 0.00 50 1012.6
20181115192130 41 149 0.0 4.0 0.00 0.00 0.00 49 1012.7
20181115192040 41 93 1.0 5.0 0.00 0.00 0.00 49 1012.7
20181115191929 41 94 1.0 6.0 0.00 0.00 0.00 50 1012.7
20181115191840 41 84 1.0 6.0 0.00 0.00 0.00 51 1012.7
20181115191729 40 266 1.0 6.0 0.00 0.00 0.00 50 1012.7
20181115191635 40 167 1.0 6.0 0.00 0.00 0.00 51 1012.7
20181115191528 40 265 2.0 6.0 0.00 0.00 0.00 50 1012.7
20181115191437 40 252 2.0 6.0 0.00 0.00 0.00 48 1012.7
20181115191327 40 262 3.0 6.0 0.00 0.00 0.00 48 1012.7
20181115191236 41 244 4.0 6.0 0.00 0.00 0.00 48 1012.7
20181115191142 41 224 4.0 6.0 0.00 0.00 0.00 49 1012.7
20181115191036 41 238 3.0 6.0 0.00 0.00 0.00 49 1012.7
20181115190926 41 280 1.0 6.0 0.00 0.00 0.00 49 1012.8
20181115190835 41 244 1.0 6.0 0.00 0.00 0.00 50 1012.8
20181115190725 41 259 1.0 6.0 0.00 0.00 0.00 49 1012.8
20181115190631 41 274 1.0 6.0 0.00 0.00 0.00 49 1012.8
20181115190524 41 114 2.0 6.0 0.00 0.00 0.00 49 1012.9
20181115190434 41 150 2.0 6.0 0.00 0.00 0.00 49 1012.9
20181115190343 41 265 2.0 6.0 0.00 0.00 0.00 49 1012.9
20181115190246 41 268 1.0 4.0 0.00 0.00 0.00 48 1013.0
20181115190137 41 120 2.0 4.0 0.00 0.00 0.00 49 1013.0
20181115190031 41 200 1.0 4.0 0.00 0.00 0.00 49 1013.0
20181115185941 41 266 1.0 4.0 0.00 0.00 0.00 49 1013.0
20181115185831 41 130 1.0 7.0 0.00 0.00 0.00 49 1013.0
20181115185740 40 130 2.0 7.0 0.00 0.00 0.00 51 1013.1
20181115185625 40 272 1.0 7.0 0.00 0.00 0.00 51 1013.1
20181115185535 40 256 1.0 7.0 0.00 0.00 0.00 51 1013.1
20181115185429 40 311 2.0 7.0 0.00 0.00 0.00 49 1013.1
20181115185339 40 123 2.0 7.0 0.00 0.00 0.00 48 1013.1
20181115185229 40 294 2.0 7.0 0.00 0.00 0.00 48 1013.2
20181115185136 40 148 3.0 7.0 0.00 0.00 0.00 47 1013.2
20181115185027 40 265 3.0 7.0 0.00 0.00 0.00 47 1013.3
20181115184940 40 225 3.0 7.0 0.00 0.00 0.00 47 1013.3
20181115184830 40 178 2.0 7.0 0.00 0.00 0.00 47 1013.3
20181115184739 40 231 3.0 7.0 0.00 0.00 0.00 49 1013.3
20181115184625 40 255 4.0 7.0 0.00 0.00 0.00 49 1013.3
20181115184534 40 252 3.0 6.0 0.00 0.00 0.00 50 1013.3
20181115184427 40 258 2.0 4.0 0.00 0.00 0.00 51 1013.3
20181115184336 40 88 1.0 3.0 0.00 0.00 0.00 52 1013.3
20181115184225 40 116 1.0 7.0 0.00 0.00 0.00 53 1013.4
20181115184131 40 116 1.0 7.0 0.00 0.00 0.00 54 1013.4
20181115184041 40 284 1.0 7.0 0.00 0.00 0.00 53 1013.4
20181115183934 39 239 1.0 7.0 0.00 0.00 0.00 54 1013.4
20181115183824 39 246 2.0 7.0 0.00 0.00 0.00 53 1013.5
20181115183734 39 251 1.0 7.0 0.00 0.00 0.00 53 1013.5
20181115183640 39 275 1.0 7.0 0.00 0.00 0.00 53 1013.5
20181115183530 39 86 2.0 7.0 0.00 0.00 0.00 53 1013.5
20181115183424 39 218 2.0 7.0 0.00 0.00 0.00 53 1013.6
20181115183335 39 246 1.0 6.0 0.00 0.00 0.00 53 1013.6
20181115183224 39 92 2.0 6.0 0.00 0.00 0.00 53 1013.6
20181115183131 39 160 3.0 6.0 0.00 0.00 0.00 53 1013.6
20181115183040 39 238 3.0 6.0 0.00 0.00 0.00 53 1013.7
20181115182928 39 232 1.0 5.0 0.00 0.00 0.00 54 1013.7
20181115182841 39 118 1.0 4.0 0.00 0.00 0.00 53 1013.7
20181115182731 39 242 1.0 4.0 0.00 0.00 0.00 54 1013.8
20181115182637 39 168 1.0 4.0 0.00 0.00 0.00 54 1013.8
20181115182526 39 259 2.0 4.0 0.00 0.00 0.00 53 1013.9
20181115182435 39 262 1.0 4.0 0.00 0.00 0.00 54 1013.9
20181115182328 38 121 2.0 7.0 0.00 0.00 0.00 53 1013.9
20181115182238 38 132 2.0 7.0 0.00 0.00 0.00 53 1013.9
20181115182124 38 129 2.0 7.0 0.00 0.00 0.00 53 1013.9
20181115182034 38 280 2.0 7.0 0.00 0.00 0.00 53 1013.9
20181115181924 38 265 1.0 7.0 0.00 0.00 0.00 54 1014.0
20181115181838 38 265 2.0 7.0 0.00 0.00 0.00 55 1014.0
20181115181728 38 255 2.0 7.0 0.00 0.00 0.00 54 1014.0
20181115181635 38 254 4.0 7.0 0.00 0.00 0.00 53 1014.0
20181115181525 38 254 5.0 7.0 0.00 0.00 0.00 53 1014.1
20181115181436 38 275 4.0 7.0 0.00 0.00 0.00 55 1014.1
20181115181329 38 249 2.0 7.0 0.00 0.00 0.00 59 1014.1
20181115181240 38 249 1.0 5.0 0.00 0.00 0.00 59 1014.1
20181115181126 38 254 3.0 5.0 0.00 0.00 0.00 57 1014.2
20181115181035 38 261 4.0 5.0 0.00 0.00 0.00 58 1014.2
20181115180926 38 242 2.0 7.0 0.00 0.00 0.00 58 1014.3
20181115180835 38 284 1.0 7.0 0.00 0.00 0.00 59 1014.3
20181115180728 38 123 2.0 7.0 0.00 0.00 0.00 59 1014.3
20181115180634 38 283 3.0 7.0 0.00 0.00 0.00 59 1014.3
20181115180543 38 272 3.0 7.0 0.00 0.00 0.00 59 1014.4
20181115180432 38 214 2.0 7.0 0.00 0.00 0.00 59 1014.4
20181115180341 38 258 1.0 7.0 0.00 0.00 0.00 59 1014.5
20181115180246 38 120 2.0 7.0 0.00 0.00 0.00 59 1014.6
20181115180138 38 270 2.0 7.0 0.00 0.00 0.00 59 1014.6
20181115180028 38 73 2.0 7.0 0.00 0.00 0.00 60 1014.7
20181115175937 38 284 3.0 7.0 0.00 0.00 0.00 59 1014.7
20181115175827 38 244 4.0 7.0 0.00 0.00 0.00 59 1014.7
20181115175741 38 265 4.0 8.0 0.00 0.00 0.00 60 1014.7
20181115175627 38 172 3.0 8.0 0.00 0.00 0.00 62 1014.8
20181115175538 37 261 3.0 8.0 0.00 0.00 0.00 62 1014.8
20181115175428 37 262 4.0 8.0 0.00 0.00 0.00 61 1014.8
20181115175337 37 249 4.0 8.0 0.00 0.00 0.00 62 1014.9
20181115175230 37 239 3.0 8.0 0.00 0.00 0.00 62 1014.9
20181115175138 37 279 4.0 8.0 0.00 0.00 0.00 61 1014.9
20181115175028 37 244 5.0 8.0 0.00 0.00 0.00 60 1014.9
20181115174938 37 284 4.0 8.0 0.00 0.00 0.00 61 1014.9
20181115174829 37 272 2.0 7.0 0.00 0.00 0.00 62 1015.0
20181115174724 37 246 1.0 5.0 0.00 0.00 0.00 63 1015.1
20181115174631 37 269 2.0 7.0 0.00 0.00 0.00 62 1015.1
20181115174540 37 138 1.0 7.0 0.00 0.00 0.00 63 1015.1
20181115174429 37 126 1.0 7.0 0.00 0.00 0.00 63 1015.1
20181115174339 37 101 2.0 7.0 0.00 0.00 0.00 63 1015.1
20181115174228 37 183 1.0 7.0 0.00 0.00 0.00 64 1015.2
20181115174138 37 97 1.0 8.0 0.00 0.00 0.00 64 1015.2
20181115174028 37 7 2.0 8.0 0.00 0.00 0.00 63 1015.3
20181115173938 37 182 2.0 8.0 0.00 0.00 0.00 63 1015.3
20181115173828 37 231 1.0 8.0 0.00 0.00 0.00 63 1015.3
20181115173738 37 156 1.0 8.0 0.00 0.00 0.00 63 1015.3
20181115173629 37 234 1.0 8.0 0.00 0.00 0.00 64 1015.4
20181115173540 37 283 2.0 8.0 0.00 0.00 0.00 64 1015.4
20181115173429 37 234 5.0 8.0 0.00 0.00 0.00 64 1015.4
20181115173339 37 270 5.0 8.0 0.00 0.00 0.00 63 1015.4
20181115173228 37 244 6.0 8.0 0.00 0.00 0.00 64 1015.4
20181115173138 37 263 5.0 8.0 0.00 0.00 0.00 65 1015.5
20181115173028 37 255 3.0 7.0 0.00 0.00 0.00 64 1015.5
20181115172938 37 204 3.0 7.0 0.00 0.00 0.00 65 1015.5
20181115172828 37 218 3.0 7.0 0.00 0.00 0.00 66 1015.6
20181115172737 37 231 3.0 7.0 0.00 0.00 0.00 67 1015.7
20181115172628 37 130 1.0 7.0 0.00 0.00 0.00 68 1015.7
20181115172538 37 83 2.0 7.0 0.00 0.00 0.00 68 1015.8
20181115172428 37 306 2.0 7.0 0.00 0.00 0.00 68 1015.8
20181115172338 37 245 1.0 7.0 0.00 0.00 0.00 69 1015.8
20181115172228 37 100 1.0 2.0 0.00 0.00 0.00 69 1015.9
20181115172134 37 116 1.0 5.0 0.00 0.00 0.00 69 1016.0
20181115172028 37 121 1.0 5.0 0.00 0.00 0.00 70 1016.1
20181115171939 37 117 1.0 5.0 0.00 0.00 0.00 70 1016.1
20181115171831 36 168 1.0 5.0 0.00 0.00 0.00 70 1016.1
20181115171741 36 272 1.0 5.0 0.00 0.00 0.00 70 1016.1
20181115171626 36 83 0.0 5.0 0.00 0.00 0.00 71 1016.2
20181115171539 36 130 1.0 5.0 0.00 0.00 0.00 71 1016.2
20181115171428 36 132 2.0 7.0 0.00 0.00 0.00 71 1016.3
20181115171338 36 203 1.0 7.0 0.00 0.00 0.00 71 1016.3
20181115171226 36 109 1.0 7.0 0.00 0.00 0.00 71 1016.4
20181115171133 36 126 1.0 7.0 0.00 0.00 0.00 71 1016.4
20181115171027 36 111 1.0 7.0 0.00 0.00 0.00 72 1016.4
20181115170937 36 270 1.0 7.0 0.00 0.00 0.00 72 1016.4
20181115170827 36 104 3.0 7.0 0.00 0.00 0.00 72 1016.4
20181115170737 36 88 4.0 7.0 0.00 0.00 0.00 72 1016.4
20181115170643 35 249 3.0 7.0 0.00 0.00 0.00 71 1016.4
20181115170537 35 244 3.0 5.0 0.00 0.00 0.00 71 1016.5
20181115170427 35 232 2.0 11.0 0.00 0.00 0.00 71 1016.6
20181115170337 35 235 1.0 11.0 0.00 0.00 0.00 71 1016.6
20181115170240 35 93 2.0 11.0 0.00 0.00 0.00 70 1016.6
20181115170131 35 92 2.0 11.0 0.00 0.00 0.00 71 1016.6
20181115170024 35 126 2.0 11.0 0.00 0.00 0.00 71 1016.6
20181115165934 35 105 2.0 11.0 0.00 0.00 0.00 72 1016.6
20181115165843 35 310 2.0 11.0 0.00 0.00 0.00 72 1016.7
20181115165733 35 256 3.0 11.0 0.00 0.00 0.00 71 1016.7
20181115165639 35 108 3.0 11.0 0.00 0.00 0.00 71 1016.7
20181115165529 35 277 2.0 7.0 0.00 0.00 0.00 71 1016.8
20181115165443 35 113 3.0 7.0 0.00 0.00 0.00 72 1016.8
20181115165333 35 251 1.0 5.0 0.00 0.00 0.00 73 1016.8
20181115165243 35 151 1.0 5.0 0.00 0.00 0.00 74 1016.8
20181115165130 35 241 1.0 5.0 0.00 0.00 0.00 74 1016.8
20181115165040 35 149 2.0 5.0 0.00 0.00 0.00 74 1016.8
20181115164934 35 109 2.0 5.0 0.00 0.00 0.00 75 1016.9
20181115164825 35 148 2.0 6.0 0.00 0.00 0.00 75 1016.9
20181115164736 35 78 2.0 6.0 0.00 0.00 0.00 75 1016.9
20181115164642 35 123 3.0 8.0 0.00 0.00 0.00 75 1017.0
20181115164533 35 149 3.0 8.0 0.00 0.00 0.00 75 1017.0
20181115164427 35 98 3.0 8.0 0.00 0.00 0.00 74 1017.0
20181115164337 35 99 3.0 8.0 0.00 0.00 0.00 74 1017.0
20181115164226 35 88 2.0 8.0 0.00 0.00 0.00 74 1017.0
20181115164133 35 295 3.0 8.0 0.00 0.00 0.00 74 1017.0
20181115164042 35 116 3.0 8.0 0.00 0.00 0.00 74 1017.0
20181115163935 35 279 3.0 8.0 0.00 0.00 0.00 75 1016.9
20181115163824 35 301 2.0 4.0 0.00 0.00 0.00 75 1016.9
20181115163734 35 116 2.0 3.0 0.00 0.00 0.00 75 1016.9
20181115163640 35 110 2.0 4.0 0.00 0.00 0.00 76 1016.9
20181115163530 35 97 2.0 4.0 0.00 0.00 0.00 76 1017.0
20181115163424 35 103 1.0 4.0 0.00 0.00 0.00 77 1017.0
20181115163334 35 130 1.0 4.0 0.00 0.00 0.00 77 1017.0
20181115163242 35 163 1.0 4.0 0.00 0.00 0.00 77 1017.0
20181115163128 35 98 1.0 4.0 0.00 0.00 0.00 77 1017.0
20181115163037 35 88 1.0 4.0 0.00 0.00 0.00 77 1017.1
20181115162927 35 192 2.0 4.0 0.00 0.00 0.00 77 1017.0
20181115162840 34 222 2.0 6.0 0.00 0.00 0.00 77 1017.0
20181115162730 34 170 1.0 6.0 0.00 0.00 0.00 77 1017.1
20181115162636 34 121 1.0 6.0 0.00 0.00 0.00 77 1017.1
20181115162526 34 104 1.0 6.0 0.00 0.00 0.00 77 1017.0
20181115162436 34 176 1.0 6.0 0.00 0.00 0.00 77 1017.0
20181115162330 34 116 2.0 6.0 0.00 0.00 0.00 77 1017.1
20181115162240 34 6 2.0 6.0 0.00 0.00 0.00 78 1017.1
20181115162126 34 112 2.0 6.0 0.00 0.00 0.00 78 1017.1
20181115162034 34 173 1.0 5.0 0.00 0.00 0.00 78 1017.1
20181115161924 34 110 1.0 3.0 0.00 0.00 0.00 78 1017.2
20181115161838 34 111 1.0 3.0 0.00 0.00 0.00 78 1017.2
20181115161728 34 92 2.0 3.0 0.00 0.00 0.00 78 1017.2
20181115161633 34 111 2.0 3.0 0.00 0.00 0.00 78 1017.2
20181115161543 34 107 2.0 3.0 0.00 0.00 0.00 78 1017.2
20181115161433 34 84 2.0 4.0 0.00 0.00 0.00 78 1017.2
20181115161327 34 102 2.0 4.0 0.00 0.00 0.00 79 1017.2
20181115161237 34 110 1.0 4.0 0.00 0.00 0.00 79 1017.2
20181115161125 34 95 0.0 4.0 0.00 0.00 0.00 80 1017.2
20181115161034 34 108 0.0 4.0 0.00 0.00 0.00 80 1017.2
20181115160925 34 90 0.0 6.0 0.00 0.00 0.00 80 1017.2
20181115160834 34 97 1.0 6.0 0.00 0.00 0.00 80 1017.2
20181115160730 34 133 2.0 6.0 0.00 0.00 0.00 80 1017.2
20181115160636 34 126 2.0 6.0 0.00 0.00 0.00 79 1017.3
20181115160526 33 154 1.0 6.0 0.00 0.00 0.00 79 1017.2
20181115160436 33 162 2.0 6.0 0.00 0.00 0.00 79 1017.2
20181115160327 33 106 2.0 6.0 0.00 0.00 0.00 79 1017.3
20181115160252 34 116 2.0 6.0 0.00 0.00 0.00 79 1017.3
20181115160124 33 84 1.0 3.0 0.00 0.00 0.00 80 1017.4
20181115160034 33 90 1.0 3.0 0.00 0.00 0.00 80 1017.4
20181115155924 33 110 1.0 4.0 0.00 0.00 0.00 79 1017.5
20181115155834 33 120 2.0 4.0 0.00 0.00 0.00 80 1017.5
20181115155727 33 110 2.0 4.0 0.00 0.00 0.00 80 1017.5
20181115155632 33 123 1.0 4.0 0.00 0.00 0.00 80 1017.5
20181115155543 33 108 1.0 4.0 0.00 0.00 0.00 80 1017.6
20181115155431 33 239 2.0 4.0 0.00 0.00 0.00 80 1017.6
20181115155340 33 147 1.0 4.0 0.00 0.00 0.00 80 1017.6
20181115155233 33 154 2.0 4.0 0.00 0.00 0.00 80 1017.6
20181115155140 33 108 2.0 4.0 0.00 0.00 0.00 81 1017.6
20181115155029 33 120 1.0 3.0 0.00 0.00 0.00 81 1017.7
20181115154939 33 119 0.0 2.0 0.00 0.00 0.00 82 1017.7
20181115154828 32 196 1.0 2.0 0.00 0.00 0.00 82 1017.7
20181115154738 32 113 1.0 2.0 0.00 0.00 0.00 83 1017.7
20181115154628 32 116 0.0 3.0 0.00 0.00 0.00 83 1017.7
20181115154538 32 111 0.0 3.0 0.00 0.00 0.00 83 1017.8
20181115154427 32 111 1.0 3.0 0.00 0.00 0.00 83 1017.8
20181115154337 32 116 1.0 3.0 0.00 0.00 0.00 84 1017.8
20181115154227 32 106 0.0 3.0 0.00 0.00 0.00 84 1017.9
20181115154137 32 135 0.0 3.0 0.00 0.00 0.00 84 1017.9
20181115154027 31 137 1.0 3.0 0.00 0.00 0.00 84 1018.0
20181115153937 31 137 1.0 3.0 0.00 0.00 0.00 84 1018.0
20181115153827 31 116 1.0 3.0 0.00 0.00 0.00 84 1018.0
20181115153738 31 97 1.0 2.0 0.00 0.00 0.00 84 1018.0
20181115153628 31 161 1.0 3.0 0.00 0.00 0.00 85 1018.1
20181115153538 31 119 1.0 3.0 0.00 0.00 0.00 85 1018.1
20181115153428 31 107 0.0 3.0 0.00 0.00 0.00 86 1018.1
20181115153338 31 108 0.0 3.0 0.00 0.00 0.00 86 1018.2
20181115153227 30 113 0.0 3.0 0.00 0.00 0.00 87 1018.2
20181115153134 30 118 0.0 3.0 0.00 0.00 0.00 87 1018.2
20181115153042 30 117 0.0 3.0 0.00 0.00 0.00 87 1018.2
20181115152931 30 123 1.0 3.0 0.00 0.00 0.00 88 1018.3
20181115152841 30 160 1.0 3.0 0.00 0.00 0.00 88 1018.3
20181115152731 29 200 1.0 3.0 0.00 0.00 0.00 88 1018.3
20181115152637 29 200 1.0 3.0 0.00 0.00 0.00 88 1018.4
20181115152530 29 256 0.0 3.0 0.00 0.00 0.00 89 1018.4
20181115152440 29 258 0.0 3.0 0.00 0.00 0.00 89 1018.4
20181115152329 29 258 1.0 3.0 0.00 0.00 0.00 89 1018.4
20181115152239 29 258 1.0 3.0 0.00 0.00 0.00 89 1018.4
20181115152127 28 262 1.0 3.0 0.00 0.00 0.00 89 1018.5
20181115152040 28 206 1.0 3.0 0.00 0.00 0.00 90 1018.5
20181115151930 28 114 1.0 3.0 0.00 0.00 0.00 90 1018.5
20181115151841 28 261 0.0 3.0 0.00 0.00 0.00 90 1018.5
20181115151732 28 261 0.0 3.0 0.00 0.00 0.00 90 1018.5
20181115151640 28 261 1.0 3.0 0.00 0.00 0.00 90 1018.5
20181115151532 28 261 2.0 3.0 0.00 0.00 0.00 91 1018.4
20181115151441 27 255 1.0 3.0 0.00 0.00 0.00 91 1018.5
20181115151331 27 339 0.0 2.0 0.00 0.00 0.00 91 1018.5
20181115151240 27 339 0.0 2.0 0.00 0.00 0.00 91 1018.5
20181115151126 27 135 0.0 2.0 0.00 0.00 0.00 92 1018.6
20181115151039 27 131 0.0 2.0 0.00 0.00 0.00 92 1018.6
20181115150929 26 132 0.0 1.0 0.00 0.00 0.00 92 1018.6
20181115150839 26 132 1.0 1.0 0.00 0.00 0.00 92 1018.6
20181115150729 26 132 1.0 1.0 0.00 0.00 0.00 92 1018.7
20181115150636 26 116 0.0 1.0 0.00 0.00 0.00 92 1018.7
20181115150530 25 299 0.0 0.0 0.00 0.00 0.00 92 1018.7
20181115150440 25 300 0.0 0.0 0.00 0.00 0.00 92 1018.7
20181115150330 25 300 0.0 0.0 0.00 0.00 0.00 92 1018.7
20181115150253 25 300 0.0 0.0 0.00 0.00 0.00 92 1018.7
20181115150124 25 299 0.0 0.0 0.00 0.00 0.00 92 1018.8
20181115150034 25 299 0.0 0.0 0.00 0.00 0.00 92 1018.8
20181115145928 25 300 0.0 0.0 0.00 0.00 0.00 93 1018.8
20181115145839 24 299 0.0 0.0 0.00 0.00 0.00 93 1018.8
20181115145729 24 299 0.0 0.0 0.00 0.00 0.00 93 1018.8
20181115145635 24 300 0.0 0.0 0.00 0.00 0.00 93 1018.8
20181115145544 24 300 0.0 0.0 0.00 0.00 0.00 93 1018.9
20181115145438 24 300 0.0 0.0 0.00 0.00 0.00 93 1018.9
20181115145327 24 300 0.0 0.0 0.00 0.00 0.00 93 1018.9
20181115145237 24 300 0.0 0.0 0.00 0.00 0.00 93 1018.9
20181115145143 24 299 0.0 0.0 0.00 0.00 0.00 93 1018.9
20181115145033 24 300 0.0 0.0 0.00 0.00 0.00 93 1019.0
20181115144927 23 300 0.0 0.0 0.00 0.00 0.00 93 1019.1
20181115144837 23 300 0.0 0.0 0.00 0.00 0.00 93 1019.1
20181115144727 23 299 0.0 0.0 0.00 0.00 0.00 93 1019.0
20181115144633 23 300 0.0 0.0 0.00 0.00 0.00 93 1019.0
20181115144543 23 300 0.0 0.0 0.00 0.00 0.00 93 1019.0
20181115144437 23 300 0.0 0.0 0.00 0.00 0.00 93 1019.1
20181115144326 23 300 0.0 0.0 0.00 0.00 0.00 93 1019.1
20181115144235 23 299 0.0 0.0 0.00 0.00 0.00 94 1019.1
20181115144142 23 300 0.0 0.0 0.00 0.00 0.00 94 1019.0
20181115144033 22 300 0.0 0.0 0.00 0.00 0.00 94 1019.1
20181115143928 22 234 0.0 0.0 0.00 0.00 0.00 94 1019.1
20181115143839 22 234 0.0 0.0 0.00 0.00 0.00 94 1019.1
20181115143728 22 234 0.0 0.0 0.00 0.00 0.00 94 1019.1
20181115143634 22 234 0.0 0.0 0.00 0.00 0.00 94 1019.1
20181115143543 22 234 0.0 0.0 0.00 0.00 0.00 94 1019.1
20181115143433 22 234 0.0 0.0 0.00 0.00 0.00 94 1019.1
20181115143326 22 234 0.0 0.0 0.00 0.00 0.00 94 1019.1
20181115143235 22 234 0.0 0.0 0.00 0.00 0.00 95 1019.1
20181115143141 21 234 0.0 0.0 0.00 0.00 0.00 95 1019.1
20181115143031 21 234 0.0 0.0 0.00 0.00 0.00 94 1019.1
20181115142942 21 234 0.0 0.0 0.00 0.00 0.00 94 1019.1
20181115142837 21 234 0.0 0.0 0.00 0.00 0.00 95 1019.1
20181115142726 21 234 0.0 0.0 0.00 0.00 0.00 95 1019.2
20181115142632 20 234 0.0 0.0 0.00 0.00 0.00 95 1019.2
20181115142541 20 234 0.0 0.0 0.00 0.00 0.00 94 1019.2
20181115142430 20 234 0.0 0.0 0.00 0.00 0.00 94 1019.2
20181115142343 20 234 0.0 0.0 0.00 0.00 0.00 94 1019.3
20181115142232 20 234 0.0 0.0 0.00 0.00 0.00 94 1019.2
20181115142138 20 234 0.0 0.0 0.00 0.00 0.00 94 1019.2
20181115142028 20 234 0.0 0.0 0.00 0.00 0.00 94 1019.2
20181115141938 20 234 0.0 0.0 0.00 0.00 0.00 94 1019.2
20181115141832 20 234 0.0 0.0 0.00 0.00 0.00 94 1019.2
20181115141741 19 234 0.0 0.0 0.00 0.00 0.00 94 1019.3
20181115141627 19 234 0.0 0.0 0.00 0.00 0.00 94 1019.3
20181115141537 19 234 0.0 0.0 0.00 0.00 0.00 94 1019.3
20181115141427 19 234 0.0 0.0 0.00 0.00 0.00 94 1019.3
20181115141336 19 234 0.0 0.0 0.00 0.00 0.00 94 1019.3
20181115141139 19 235 0.0 0.0 0.00 0.00 0.00 94 1019.3
20181115141029 19 234 0.0 0.0 0.00 0.00 0.00 94 1019.3
20181115140939 19 234 0.0 0.0 0.00 0.00 0.00 94 1019.3
20181115140829 19 234 0.0 0.0 0.00 0.00 0.00 94 1019.3
20181115140743 19 234 0.0 0.0 0.00 0.00 0.00 94 1019.3
20181115140630 19 234 0.0 0.0 0.00 0.00 0.00 94 1019.3
20181115140539 19 234 0.0 0.0 0.00 0.00 0.00 94 1019.3
20181115140430 19 234 0.0 0.0 0.00 0.00 0.00 94 1019.4
20181115140341 19 234 0.0 0.0 0.00 0.00 0.00 94 1019.4
20181115140247 19 234 0.0 0.0 0.00 0.00 0.00 94 1019.4
20181115140139 18 234 0.0 0.0 0.00 0.00 0.00 94 1019.5
20181115140029 18 234 0.0 0.0 0.00 0.00 0.00 94 1019.4
20181115135939 18 234 0.0 0.0 0.00 0.00 0.00 94 1019.5
20181115135829 18 234 0.0 0.0 0.00 0.00 0.00 94 1019.5
20181115135742 18 234 0.0 0.0 0.00 0.00 0.00 94 1019.6
20181115135630 18 235 0.0 0.0 0.00 0.00 0.00 94 1019.5
20181115135541 18 234 0.0 0.0 0.00 0.00 0.00 94 1019.5
20181115135430 18 234 0.0 0.0 0.00 0.00 0.00 94 1019.5
20181115135339 18 234 0.0 0.0 0.00 0.00 0.00 94 1019.5
20181115135233 18 234 0.0 0.0 0.00 0.00 0.00 94 1019.6
20181115135138 18 234 0.0 0.0 0.00 0.00 0.00 94 1019.6
20181115135028 18 234 0.0 0.0 0.00 0.00 0.00 94 1019.6
20181115134937 18 235 0.0 0.0 0.00 0.00 0.00 94 1019.6
20181115134827 18 234 0.0 0.0 0.00 0.00 0.00 94 1019.6
20181115134736 18 234 0.0 0.0 0.00 0.00 0.00 94 1019.6
20181115134627 18 234 0.0 0.0 0.00 0.00 0.00 94 1019.6
20181115134536 18 234 0.0 0.0 0.00 0.00 0.00 94 1019.6
20181115134426 18 234 0.0 0.0 0.00 0.00 0.00 94 1019.5
20181115134336 18 234 0.0 0.0 0.00 0.00 0.00 94 1019.5
20181115134227 18 234 0.0 0.0 0.00 0.00 0.00 94 1019.6
20181115134137 18 234 0.0 0.0 0.00 0.00 0.00 94 1019.6
20181115134027 18 234 0.0 0.0 0.00 0.00 0.00 94 1019.6
20181115133935 17 234 0.0 0.0 0.00 0.00 0.00 95 1019.6
20181115133824 17 234 0.0 0.0 0.00 0.00 0.00 94 1019.7
20181115133734 17 234 0.0 0.0 0.00 0.00 0.00 94 1019.7
20181115133624 17 234 0.0 0.0 0.00 0.00 0.00 94 1019.8
20181115133533 17 234 0.0 0.0 0.00 0.00 0.00 94 1019.8
20181115133444 17 234 0.0 0.0 0.00 0.00 0.00 95 1019.9
20181115133333 17 234 0.0 0.0 0.00 0.00 0.00 95 1019.9
20181115133243 17 235 0.0 0.0 0.00 0.00 0.00 95 1019.9
20181115133133 17 234 0.0 0.0 0.00 0.00 0.00 95 1019.9
20181115133042 17 235 0.0 0.0 0.00 0.00 0.00 95 1019.9
20181115132931 17 234 0.0 0.0 0.00 0.00 0.00 95 1019.9
20181115132840 17 234 0.0 0.0 0.00 0.00 0.00 95 1020.0
20181115132729 17 234 0.0 0.0 0.00 0.00 0.00 95 1020.0
20181115132635 17 234 0.0 0.0 0.00 0.00 0.00 95 1020.0
20181115132528 17 234 0.0 0.0 0.00 0.00 0.00 95 1020.1
20181115132437 17 234 0.0 0.0 0.00 0.00 0.00 95 1020.0
20181115132327 16 234 0.0 0.0 0.00 0.00 0.00 95 1020.1
20181115132235 16 235 0.0 0.0 0.00 0.00 0.00 95 1020.1
20181115132141 16 234 0.0 0.0 0.00 0.00 0.00 94 1020.1
20181115132035 16 234 0.0 0.0 0.00 0.00 0.00 94 1020.1
20181115131925 16 234 0.0 0.0 0.00 0.00 0.00 94 1020.2
20181115131835 16 234 0.0 0.0 0.00 0.00 0.00 94 1020.2
20181115131725 16 234 0.0 0.0 0.00 0.00 0.00 94 1020.1
20181115131631 16 234 0.0 0.0 0.00 0.00 0.00 94 1020.1
20181115131525 16 235 0.0 0.0 0.00 0.00 0.00 94 1020.2
20181115131435 16 234 0.0 0.0 0.00 0.00 0.00 94 1020.2
20181115131325 16 234 0.0 0.0 0.00 0.00 0.00 94 1020.3
20181115131235 16 235 0.0 0.0 0.00 0.00 0.00 94 1020.3
20181115131141 15 234 0.0 0.0 0.00 0.00 0.00 94 1020.3
20181115131034 15 234 0.0 0.0 0.00 0.00 0.00 94 1020.3
20181115130924 15 234 0.0 0.0 0.00 0.00 0.00 94 1020.2
20181115130835 15 234 0.0 0.0 0.00 0.00 0.00 93 1020.2
20181115130725 15 234 0.0 0.0 0.00 0.00 0.00 93 1020.3
20181115130631 15 234 0.0 0.0 0.00 0.00 0.00 93 1020.3
20181115130526 15 234 0.0 0.0 0.00 0.00 0.00 93 1020.3
20181115130437 15 235 0.0 0.0 0.00 0.00 0.00 93 1020.3
20181115130326 15 234 0.0 0.0 0.00 0.00 0.00 93 1020.3
20181115130248 15 234 0.0 0.0 0.00 0.00 0.00 93 1020.3
20181115130140 16 234 0.0 0.0 0.00 0.00 0.00 93 1020.3
20181115130029 16 234 0.0 0.0 0.00 0.00 0.00 93 1020.3
20181115125942 16 234 0.0 0.0 0.00 0.00 0.00 93 1020.3
20181115125832 16 235 0.0 0.0 0.00 0.00 0.00 93 1020.3
20181115125741 16 234 0.0 0.0 0.00 0.00 0.00 93 1020.3
20181115125627 16 234 0.0 0.0 0.00 0.00 0.00 93 1020.3
20181115125536 16 234 0.0 0.0 0.00 0.00 0.00 93 1020.3
20181115125430 16 234 0.0 0.0 0.00 0.00 0.00 93 1020.3
20181115125340 16 234 0.0 0.0 0.00 0.00 0.00 93 1020.3
20181115125229 16 234 0.0 0.0 0.00 0.00 0.00 93 1020.3
20181115125136 16 234 0.0 0.0 0.00 0.00 0.00 93 1020.3
20181115125026 16 234 0.0 0.0 0.00 0.00 0.00 93 1020.3
20181115124939 16 235 0.0 0.0 0.00 0.00 0.00 93 1020.3
20181115124828 16 234 0.0 0.0 0.00 0.00 0.00 93 1020.3
20181115124738 16 234 0.0 0.0 0.00 0.00 0.00 93 1020.3
20181115124624 16 234 0.0 0.0 0.00 0.00 0.00 93 1020.4
20181115124534 16 234 0.0 0.0 0.00 0.00 0.00 93 1020.4
20181115124428 16 234 0.0 0.0 0.00 0.00 0.00 93 1020.4
20181115124338 16 234 0.0 0.0 0.00 0.00 0.00 93 1020.4
20181115124228 16 234 0.0 0.0 0.00 0.00 0.00 93 1020.4
20181115124136 16 234 0.0 0.0 0.00 0.00 0.00 94 1020.5
20181115124026 16 234 0.0 0.0 0.00 0.00 0.00 94 1020.5
20181115123935 16 234 0.0 0.0 0.00 0.00 0.00 94 1020.5
20181115123828 16 234 0.0 0.0 0.00 0.00 0.00 94 1020.5
20181115123737 16 234 0.0 0.0 0.00 0.00 0.00 94 1020.6
20181115123643 16 234 0.0 0.0 0.00 0.00 0.00 94 1020.6
20181115123533 16 234 0.0 0.0 0.00 0.00 0.00 94 1020.6
20181115123442 16 234 0.0 0.0 0.00 0.00 0.00 94 1020.6
20181115123336 16 234 0.0 0.0 0.00 0.00 0.00 94 1020.6
20181115123225 16 234 0.0 0.0 0.00 0.00 0.00 94 1020.7
20181115123131 16 234 0.0 0.0 0.00 0.00 0.00 94 1020.7
20181115123040 16 234 0.0 0.0 0.00 0.00 0.00 94 1020.7
20181115122929 16 234 0.0 0.0 0.00 0.00 0.00 94 1020.7
20181115122843 16 235 0.0 0.0 0.00 0.00 0.00 94 1020.7
20181115122733 16 235 0.0 0.0 0.00 0.00 0.00 94 1020.7
20181115122639 16 234 0.0 0.0 0.00 0.00 0.00 94 1020.7
20181115122529 16 234 0.0 0.0 0.00 0.00 0.00 94 1020.7
20181115122439 16 234 0.0 0.0 0.00 0.00 0.00 94 1020.7
20181115122333 16 234 0.0 0.0 0.00 0.00 0.00 94 1020.8
20181115122242 16 234 0.0 0.0 0.00 0.00 0.00 94 1020.8
20181115122128 16 234 0.0 0.0 0.00 0.00 0.00 93 1020.8
20181115122038 16 234 0.0 0.0 0.00 0.00 0.00 93 1020.8
20181115121947 16 235 0.0 0.0 0.00 0.00 0.00 93 1020.8
20181115121736 17 234 0.0 0.0 0.00 0.00 0.00 94 1020.8
20181115121626 17 235 0.0 0.0 0.00 0.00 0.00 94 1020.9
20181115121536 17 234 0.0 0.0 0.00 0.00 0.00 94 1020.9
20181115121425 17 234 0.0 0.0 0.00 0.00 0.00 94 1021.0
20181115121335 17 234 0.0 0.0 0.00 0.00 0.00 94 1021.0
20181115121225 17 235 0.0 0.0 0.00 0.00 0.00 94 1020.9
20181115121136 17 234 0.0 0.0 0.00 0.00 0.00 94 1020.9
20181115121025 17 235 0.0 0.0 0.00 0.00 0.00 94 1021.0
20181115120936 17 234 0.0 0.0 0.00 0.00 0.00 94 1021.0
20181115120827 17 234 0.0 0.0 0.00 0.00 0.00 94 1021.0
20181115120738 17 234 0.0 0.0 0.00 0.00 0.00 94 1021.0
20181115120628 17 234 0.0 0.0 0.00 0.00 0.00 94 1021.0
20181115120537 17 234 0.0 0.0 0.00 0.00 0.00 94 1021.0
20181115120427 17 234 0.0 0.0 0.00 0.00 0.00 94 1021.1
20181115120336 17 234 0.0 0.0 0.00 0.00 0.00 94 1021.1
20181115120258 17 234 0.0 0.0 0.00 0.00 0.00 94 1021.1
20181115120134 16 234 0.0 0.0 0.00 0.00 0.00 94 1021.2
20181115120043 16 234 0.0 0.0 0.00 0.00 0.00 94 1021.1
20181115115932 16 234 0.0 0.0 0.00 0.00 0.00 94 1021.2
20181115115841 16 234 0.0 0.0 0.00 0.00 0.00 94 1021.2
20181115115732 16 234 0.0 0.0 0.00 0.00 0.00 94 1021.2
20181115115639 16 234 0.0 0.0 0.00 0.00 0.00 94 1021.3
20181115115532 16 234 0.0 0.0 0.00 0.00 0.00 94 1021.2
20181115115442 16 234 0.0 0.0 0.00 0.00 0.00 94 1021.3
20181115115332 16 234 0.0 0.0 0.00 0.00 0.00 94 1021.3
20181115115242 16 234 0.0 0.0 0.00 0.00 0.00 93 1021.3
20181115115128 16 234 0.0 0.0 0.00 0.00 0.00 93 1021.3
20181115115041 16 233 0.0 0.0 0.00 0.00 0.00 93 1021.3
20181115114932 16 234 0.0 0.0 0.00 0.00 0.00 94 1021.4
20181115114842 16 235 0.0 0.0 0.00 0.00 0.00 94 1021.4
20181115114731 16 234 0.0 0.0 0.00 0.00 0.00 94 1021.4
20181115114637 16 234 0.0 0.0 0.00 0.00 0.00 94 1021.3
20181115114531 16 234 0.0 0.0 0.00 0.00 0.00 94 1021.4
20181115114441 16 234 0.0 0.0 0.00 0.00 0.00 94 1021.3
20181115114331 16 234 0.0 0.0 0.00 0.00 0.00 94 1021.3
20181115114241 16 234 0.0 0.0 0.00 0.00 0.00 94 1021.4
20181115114127 16 234 0.0 0.0 0.00 0.00 0.00 93 1021.5
20181115114040 16 234 0.0 0.0 0.00 0.00 0.00 93 1021.5
20181115113930 16 234 0.0 0.0 0.00 0.00 0.00 93 1021.5
20181115113840 16 234 0.0 0.0 0.00 0.00 0.00 93 1021.5
20181115113730 16 234 0.0 0.0 0.00 0.00 0.00 93 1021.5
20181115113636 16 234 0.0 0.0 0.00 0.00 0.00 93 1021.5
20181115113531 16 234 0.0 0.0 0.00 0.00 0.00 93 1021.5
20181115113442 16 234 0.0 0.0 0.00 0.00 0.00 93 1021.6
20181115113331 16 235 0.0 0.0 0.00 0.00 0.00 93 1021.6
20181115113241 16 235 0.0 0.0 0.00 0.00 0.00 93 1021.6
20181115113127 16 234 0.0 0.0 0.00 0.00 0.00 93 1021.6
20181115113037 16 235 0.0 0.0 0.00 0.00 0.00 93 1021.6
20181115112931 16 234 0.0 0.0 0.00 0.00 0.00 93 1021.5
20181115112840 16 234 0.0 0.0 0.00 0.00 0.00 93 1021.6
20181115112730 16 234 0.0 0.0 0.00 0.00 0.00 93 1021.6
20181115112637 16 234 0.0 0.0 0.00 0.00 0.00 93 1021.5
20181115112527 16 234 0.0 0.0 0.00 0.00 0.00 93 1021.6
20181115112441 16 234 0.0 0.0 0.00 0.00 0.00 93 1021.6
20181115112331 16 234 0.0 0.0 0.00 0.00 0.00 93 1021.6
20181115112241 16 235 0.0 0.0 0.00 0.00 0.00 93 1021.6
20181115112126 16 234 0.0 0.0 0.00 0.00 0.00 93 1021.6
20181115112036 16 234 0.0 0.0 0.00 0.00 0.00 93 1021.6
20181115111929 16 234 0.0 0.0 0.00 0.00 0.00 93 1021.7
20181115111839 16 234 0.0 0.0 0.00 0.00 0.00 93 1021.7
20181115111730 16 234 0.0 0.0 0.00 0.00 0.00 93 1021.7
20181115111636 16 234 0.0 0.0 0.00 0.00 0.00 93 1021.7
20181115111526 17 234 0.0 0.0 0.00 0.00 0.00 93 1021.7
20181115111439 17 234 0.0 0.0 0.00 0.00 0.00 93 1021.7
20181115111328 17 234 0.0 0.0 0.00 0.00 0.00 93 1021.7
20181115111237 17 234 0.0 0.0 0.00 0.00 0.00 93 1021.7
20181115111143 17 234 0.0 0.0 0.00 0.00 0.00 93 1021.7
20181115111032 16 234 0.0 0.0 0.00 0.00 0.00 93 1021.7
20181115110925 16 234 0.0 0.0 0.00 0.00 0.00 93 1021.7
20181115110834 16 235 0.0 0.0 0.00 0.00 0.00 93 1021.7
20181115110743 16 234 0.0 0.0 0.00 0.00 0.00 93 1021.7
20181115110629 16 234 0.0 0.0 0.00 0.00 0.00 93 1021.7
20181115110538 16 234 0.0 0.0 0.00 0.00 0.00 93 1021.7
20181115110428 16 234 0.0 0.0 0.00 0.00 0.00 93 1021.7
20181115110341 16 234 0.0 0.0 0.00 0.00 0.00 93 1021.7
20181115110243 16 234 0.0 0.0 0.00 0.00 0.00 93 1021.7
20181115110135 16 234 0.0 0.0 0.00 0.00 0.00 93 1021.7
20181115110025 16 234 0.0 0.0 0.00 0.00 0.00 93 1021.7
20181115105935 16 234 0.0 0.0 0.00 0.00 0.00 92 1021.7
20181115105828 16 234 0.0 0.0 0.00 0.00 0.00 92 1021.7
20181115105740 16 234 0.0 0.0 0.00 0.00 0.00 92 1021.7
20181115105628 16 234 0.0 0.0 0.00 0.00 0.00 92 1021.7
20181115105539 16 234 0.0 0.0 0.00 0.00 0.00 92 1021.7
20181115105430 16 234 0.0 0.0 0.00 0.00 0.00 92 1021.7
20181115105344 16 234 0.0 0.0 0.00 0.00 0.00 92 1021.7
20181115105233 16 234 0.0 0.0 0.00 0.00 0.00 93 1021.7
20181115105139 16 234 0.0 0.0 0.00 0.00 0.00 92 1021.8
20181115105028 16 234 0.0 0.0 0.00 0.00 0.00 92 1021.7
20181115104937 16 234 0.0 0.0 0.00 0.00 0.00 92 1021.7
20181115104832 16 234 0.0 0.0 0.00 0.00 0.00 92 1021.8
20181115104741 16 235 0.0 0.0 0.00 0.00 0.00 92 1021.8
20181115104628 16 234 0.0 0.0 0.00 0.00 0.00 92 1021.9
20181115104538 16 234 0.0 0.0 0.00 0.00 0.00 92 1021.9
20181115104427 16 234 0.0 0.0 0.00 0.00 0.00 92 1021.9
20181115104337 16 234 0.0 0.0 0.00 0.00 0.00 92 1021.9
20181115104231 16 234 0.0 0.0 0.00 0.00 0.00 92 1021.9
20181115104137 16 234 0.0 0.0 0.00 0.00 0.00 92 1021.9
20181115104027 16 234 0.0 0.0 0.00 0.00 0.00 92 1021.9
20181115103937 16 234 0.0 0.0 0.00 0.00 0.00 92 1021.9
20181115103827 16 234 0.0 0.0 0.00 0.00 0.00 92 1021.9
20181115103741 16 234 0.0 0.0 0.00 0.00 0.00 92 1021.9
20181115103627 16 234 0.0 0.0 0.00 0.00 0.00 92 1021.9
20181115103537 16 235 0.0 0.0 0.00 0.00 0.00 92 1021.9
20181115103427 16 234 0.0 0.0 0.00 0.00 0.00 92 1021.9
20181115103336 16 234 0.0 0.0 0.00 0.00 0.00 92 1021.9
20181115103230 16 235 0.0 0.0 0.00 0.00 0.00 91 1021.9
20181115103136 16 234 0.0 0.0 0.00 0.00 0.00 91 1021.9
20181115103026 17 235 0.0 0.0 0.00 0.00 0.00 91 1021.9
20181115102936 17 234 0.0 0.0 0.00 0.00 0.00 91 1021.9
20181115102826 17 234 0.0 0.0 0.00 0.00 0.00 91 1021.9
20181115102741 17 234 0.0 0.0 0.00 0.00 0.00 91 1021.9
20181115102627 17 235 0.0 0.0 0.00 0.00 0.00 91 1022.0
20181115102535 17 234 0.0 0.0 0.00 0.00 0.00 91 1022.0
20181115102424 17 234 0.0 0.0 0.00 0.00 0.00 91 1022.0
20181115102333 17 234 0.0 0.0 0.00 0.00 0.00 91 1022.0
20181115102227 17 234 0.0 0.0 0.00 0.00 0.00 91 1022.0
20181115102133 17 234 0.0 0.0 0.00 0.00 0.00 91 1022.0
20181115102043 17 234 0.0 0.0 0.00 0.00 0.00 91 1022.0
20181115101933 17 234 0.0 0.0 0.00 0.00 0.00 91 1022.0
20181115101843 17 234 0.0 0.0 0.00 0.00 0.00 91 1022.1
20181115101733 17 235 0.0 0.0 0.00 0.00 0.00 91 1022.1
20181115101643 17 234 0.0 0.0 0.00 0.00 0.00 91 1022.1
20181115101532 17 234 0.0 0.0 0.00 0.00 0.00 91 1022.2
20181115101441 17 234 0.0 0.0 0.00 0.00 0.00 91 1022.2
20181115101330 17 234 0.0 0.0 0.00 0.00 0.00 91 1022.2
20181115101240 17 234 0.0 0.0 0.00 0.00 0.00 91 1022.2
20181115101129 17 234 0.0 0.0 0.00 0.00 0.00 91 1022.1
20181115101039 17 234 0.0 0.0 0.00 0.00 0.00 91 1022.1
20181115100929 18 234 0.0 0.0 0.00 0.00 0.00 91 1022.2
20181115100838 18 234 0.0 0.0 0.00 0.00 0.00 91 1022.1
20181115100728 18 234 0.0 0.0 0.00 0.00 0.00 91 1022.2
20181115100639 18 234 0.0 0.0 0.00 0.00 0.00 91 1022.1
20181115100529 18 234 0.0 0.0 0.00 0.00 0.00 91 1022.1
20181115100438 18 235 0.0 0.0 0.00 0.00 0.00 91 1022.2
20181115100328 18 234 0.0 0.0 0.00 0.00 0.00 91 1022.2
20181115100251 18 234 0.0 0.0 0.00 0.00 0.00 91 1022.2
20181115100126 18 234 0.0 0.0 0.00 0.00 0.00 91 1022.2
20181115100034 18 234 0.0 0.0 0.00 0.00 0.00 91 1022.2
20181115095943 18 234 0.0 0.0 0.00 0.00 0.00 92 1022.3
20181115095832 18 234 0.0 0.0 0.00 0.00 0.00 92 1022.2
20181115095742 19 234 0.0 0.0 0.00 0.00 0.00 92 1022.3
20181115095628 19 234 0.0 0.0 0.00 0.00 0.00 92 1022.3
20181115095542 19 234 0.0 0.0 0.00 0.00 0.00 92 1022.3
20181115095432 18 234 0.0 0.0 0.00 0.00 0.00 92 1022.4
20181115095342 18 234 0.0 0.0 0.00 0.00 0.00 92 1022.4
20181115095231 18 234 0.0 0.0 0.00 0.00 0.00 92 1022.4
20181115095138 18 234 0.0 0.0 0.00 0.00 0.00 91 1022.5
20181115095031 18 234 0.0 0.0 0.00 0.00 0.00 91 1022.5
20181115094941 18 234 0.0 0.0 0.00 0.00 0.00 91 1022.6
20181115094831 18 234 0.0 0.0 0.00 0.00 0.00 91 1022.6
20181115094740 18 234 0.0 0.0 0.00 0.00 0.00 91 1022.6
20181115094627 18 234 0.0 0.0 0.00 0.00 0.00 91 1022.6
20181115094540 18 234 0.0 0.0 0.00 0.00 0.00 91 1022.6
20181115094430 18 234 0.0 0.0 0.00 0.00 0.00 91 1022.7
20181115094340 18 235 0.0 0.0 0.00 0.00 0.00 91 1022.7
20181115094231 18 234 0.0 0.0 0.00 0.00 0.00 91 1022.7
20181115094136 18 234 0.0 0.0 0.00 0.00 0.00 91 1022.7
20181115094031 18 235 0.0 0.0 0.00 0.00 0.00 91 1022.7
20181115093940 18 234 0.0 0.0 0.00 0.00 0.00 91 1022.7
20181115093830 18 234 0.0 0.0 0.00 0.00 0.00 91 1022.7
20181115093739 18 234 0.0 0.0 0.00 0.00 0.00 91 1022.8
20181115093625 18 234 0.0 0.0 0.00 0.00 0.00 91 1022.8
20181115093534 18 234 0.0 0.0 0.00 0.00 0.00 91 1022.8
20181115093429 18 235 0.0 0.0 0.00 0.00 0.00 91 1022.8
20181115093339 18 234 0.0 0.0 0.00 0.00 0.00 91 1022.8
20181115093227 18 234 0.0 0.0 0.00 0.00 0.00 91 1022.8
20181115093133 18 235 0.0 0.0 0.00 0.00 0.00 91 1022.8
20181115093042 18 234 0.0 0.0 0.00 0.00 0.00 91 1022.8
20181115092936 18 234 0.0 0.0 0.00 0.00 0.00 91 1022.8
20181115092826 18 234 0.0 0.0 0.00 0.00 0.00 91 1022.8
20181115092734 18 234 0.0 0.0 0.00 0.00 0.00 91 1022.8
20181115092640 18 234 0.0 0.0 0.00 0.00 0.00 91 1022.9
20181115092530 18 234 0.0 0.0 0.00 0.00 0.00 91 1022.9
20181115092424 18 234 0.0 0.0 0.00 0.00 0.00 91 1022.9
20181115092334 18 234 0.0 0.0 0.00 0.00 0.00 91 1022.9
20181115092243 18 234 0.0 0.0 0.00 0.00 0.00 91 1022.9
20181115092129 18 234 0.0 0.0 0.00 0.00 0.00 91 1022.9
20181115092038 18 234 0.0 0.0 0.00 0.00 0.00 91 1023.0
20181115091931 18 234 0.0 0.0 0.00 0.00 0.00 90 1023.0
20181115091841 18 234 0.0 0.0 0.00 0.00 0.00 90 1023.1
20181115091730 18 234 0.0 0.0 0.00 0.00 0.00 90 1023.1
20181115091637 18 234 0.0 0.0 0.00 0.00 0.00 90 1023.1
20181115091527 18 234 0.0 0.0 0.00 0.00 0.00 91 1023.2
20181115091437 18 234 0.0 0.0 0.00 0.00 0.00 91 1023.2
20181115091331 18 234 0.0 0.0 0.00 0.00 0.00 91 1023.3
20181115091241 18 234 0.0 0.0 0.00 0.00 0.00 91 1023.4
20181115091127 18 234 0.0 0.0 0.00 0.00 0.00 91 1023.4
20181115091037 18 235 0.0 0.0 0.00 0.00 0.00 91 1023.4
20181115090926 18 234 0.0 0.0 0.00 0.00 0.00 91 1023.4
20181115090840 18 234 0.0 0.0 0.00 0.00 0.00 91 1023.4
20181115090730 18 234 0.0 0.0 0.00 0.00 0.00 91 1023.4
20181115090637 18 234 0.0 0.0 0.00 0.00 0.00 91 1023.4
20181115090528 18 235 0.0 0.0 0.00 0.00 0.00 91 1023.4
20181115090439 18 234 0.0 0.0 0.00 0.00 0.00 91 1023.4
20181115090334 18 234 0.0 0.0 0.00 0.00 0.00 91 1023.4
20181115090256 18 234 0.0 0.0 0.00 0.00 0.00 91 1023.5
20181115090129 18 234 0.0 0.0 0.00 0.00 0.00 91 1023.5
20181115090040 18 234 0.0 0.0 0.00 0.00 0.00 91 1023.6
20181115085930 18 234 0.0 0.0 0.00 0.00 0.00 91 1023.5
20181115085825 18 234 0.0 0.0 0.00 0.00 0.00 91 1023.6
20181115085736 18 234 0.0 0.0 0.00 0.00 0.00 91 1023.6
20181115085643 18 234 0.0 0.0 0.00 0.00 0.00 91 1023.7
20181115085532 18 234 0.0 0.0 0.00 0.00 0.00 91 1023.7
20181115085441 18 235 0.0 0.0 0.00 0.00 0.00 90 1023.7
20181115085334 18 234 0.0 0.0 0.00 0.00 0.00 90 1023.7
20181115085243 18 234 0.0 0.0 0.00 0.00 0.00 90 1023.6
20181115085129 18 234 0.0 0.0 0.00 0.00 0.00 90 1023.6
20181115085038 18 234 0.0 0.0 0.00 0.00 0.00 90 1023.6
20181115084929 18 234 0.0 0.0 0.00 0.00 0.00 90 1023.6
20181115084839 18 234 0.0 0.0 0.00 0.00 0.00 90 1023.7
20181115084733 18 234 0.0 0.0 0.00 0.00 0.00 90 1023.6
20181115084639 18 234 0.0 0.0 0.00 0.00 0.00 90 1023.6
20181115084529 18 234 0.0 0.0 0.00 0.00 0.00 90 1023.6
20181115084439 18 234 0.0 0.0 0.00 0.00 0.00 89 1023.7
20181115084328 18 234 0.0 0.0 0.00 0.00 0.00 89 1023.7
20181115084244 18 234 0.0 0.0 0.00 0.00 0.00 89 1023.7
20181115084131 18 234 0.0 0.0 0.00 0.00 0.00 89 1023.7
20181115084041 18 235 0.0 0.0 0.00 0.00 0.00 89 1023.8
20181115083930 18 234 0.0 0.0 0.00 0.00 0.00 89 1023.8
20181115083839 18 234 0.0 0.0 0.00 0.00 0.00 89 1023.8
20181115083733 18 234 0.0 0.0 0.00 0.00 0.00 89 1023.8
20181115083639 18 234 0.0 0.0 0.00 0.00 0.00 89 1023.8
20181115083527 18 234 0.0 0.0 0.00 0.00 0.00 89 1023.8
20181115083438 18 234 0.0 0.0 0.00 0.00 0.00 89 1023.9
20181115083327 18 234 0.0 0.0 0.00 0.00 0.00 89 1024.0
20181115083241 18 235 0.0 0.0 0.00 0.00 0.00 89 1024.0
20181115083127 19 234 0.0 0.0 0.00 0.00 0.00 89 1024.0
20181115083037 19 234 0.0 0.0 0.00 0.00 0.00 89 1024.0
20181115082926 19 234 0.0 0.0 0.00 0.00 0.00 89 1024.0
20181115082836 19 234 0.0 0.0 0.00 0.00 0.00 89 1024.0
20181115082730 19 234 0.0 0.0 0.00 0.00 0.00 89 1024.0
20181115082637 19 234 0.0 0.0 0.00 0.00 0.00 89 1024.0
20181115082527 19 234 0.0 0.0 0.00 0.00 0.00 89 1024.1
20181115082437 19 234 0.0 0.0 0.00 0.00 0.00 89 1024.1
20181115082327 19 234 0.0 0.0 0.00 0.00 0.00 89 1024.1
20181115082238 19 234 0.0 0.0 0.00 0.00 0.00 89 1024.1
20181115082128 19 234 0.0 0.0 0.00 0.00 0.00 89 1024.1
20181115082037 19 234 0.0 0.0 0.00 0.00 0.00 89 1024.2
20181115081927 19 234 0.0 0.0 0.00 0.00 0.00 89 1024.3
20181115081835 19 235 0.0 0.0 0.00 0.00 0.00 89 1024.3
20181115081724 19 235 0.0 0.0 0.00 0.00 0.00 89 1024.2
20181115081634 19 235 0.0 0.0 0.00 0.00 0.00 89 1024.2
20181115081544 19 235 0.0 0.0 0.00 0.00 0.00 89 1024.3
20181115081433 18 236 0.0 0.0 0.00 0.00 0.00 89 1024.3
20181115081343 18 235 0.0 0.0 0.00 0.00 0.00 88 1024.4
20181115081233 18 235 0.0 0.0 0.00 0.00 0.00 89 1024.4
20181115081143 18 235 0.0 0.0 0.00 0.00 0.00 89 1024.4
20181115081033 18 235 0.0 0.0 0.00 0.00 0.00 88 1024.4
20181115080942 18 235 0.0 0.0 0.00 0.00 0.00 88 1024.4
20181115080832 19 235 0.0 0.0 0.00 0.00 0.00 88 1024.4
20181115080742 19 236 0.0 0.0 0.00 0.00 0.00 88 1024.5
20181115080633 19 235 0.0 0.0 0.00 0.00 0.00 88 1024.4
20181115080543 19 235 0.0 0.0 0.00 0.00 0.00 88 1024.4
20181115080433 19 236 0.0 0.0 0.00 0.00 0.00 88 1024.4
20181115080343 19 235 0.0 0.0 0.00 0.00 0.00 88 1024.4
20181115080244 19 235 0.0 0.0 0.00 0.00 0.00 88 1024.4
20181115080137 19 235 0.0 0.0 0.00 0.00 0.00 88 1024.5
20181115080031 19 235 0.0 0.0 0.00 0.00 0.00 88 1024.4
20181115075941 19 235 0.0 0.0 0.00 0.00 0.00 87 1024.5
20181115075830 19 235 0.0 0.0 0.00 0.00 0.00 87 1024.5
20181115075741 19 235 0.0 0.0 0.00 0.00 0.00 87 1024.5
20181115075627 19 235 0.0 0.0 0.00 0.00 0.00 87 1024.5
20181115075541 19 235 0.0 0.0 0.00 0.00 0.00 87 1024.5
20181115075431 19 235 0.0 0.0 0.00 0.00 0.00 87 1024.5
20181115075342 19 235 0.0 0.0 0.00 0.00 0.00 87 1024.6
20181115075231 19 235 0.0 0.0 0.00 0.00 0.00 87 1024.5
20181115075139 19 235 0.0 0.0 0.00 0.00 0.00 87 1024.5
20181115075032 19 235 0.0 0.0 0.00 0.00 0.00 87 1024.6
20181115074942 19 235 0.0 0.0 0.00 0.00 0.00 87 1024.6
20181115074831 19 235 0.0 0.0 0.00 0.00 0.00 87 1024.6
20181115074741 19 235 0.0 0.0 0.00 0.00 0.00 87 1024.5
20181115074628 19 236 0.0 0.0 0.00 0.00 0.00 87 1024.5
20181115074542 19 235 0.0 0.0 0.00 0.00 0.00 87 1024.5
20181115074432 19 235 0.0 0.0 0.00 0.00 0.00 87 1024.5
20181115074341 19 235 0.0 0.0 0.00 0.00 0.00 87 1024.5
20181115074231 19 235 0.0 0.0 0.00 0.00 0.00 87 1024.6
20181115074138 19 235 0.0 0.0 0.00 0.00 0.00 87 1024.6
20181115074032 19 235 0.0 0.0 0.00 0.00 0.00 87 1024.6
20181115073942 19 236 0.0 0.0 0.00 0.00 0.00 86 1024.6
20181115073831 20 235 0.0 0.0 0.00 0.00 0.00 87 1024.7
20181115073741 20 235 0.0 0.0 0.00 0.00 0.00 87 1024.6
20181115073628 20 235 0.0 0.0 0.00 0.00 0.00 87 1024.7
20181115073538 20 235 0.0 0.0 0.00 0.00 0.00 86 1024.7
20181115073432 20 235 0.0 0.0 0.00 0.00 0.00 86 1024.7
20181115073342 20 235 0.0 0.0 0.00 0.00 0.00 86 1024.7
20181115073232 20 235 0.0 0.0 0.00 0.00 0.00 86 1024.7
20181115073139 20 235 0.0 0.0 0.00 0.00 0.00 86 1024.7
20181115073028 20 235 0.0 0.0 0.00 0.00 0.00 86 1024.7
20181115072942 20 235 0.0 0.0 0.00 0.00 0.00 86 1024.7
20181115072831 20 235 0.0 0.0 0.00 0.00 0.00 86 1024.7
20181115072740 20 236 0.0 0.0 0.00 0.00 0.00 86 1024.7
20181115072627 20 235 0.0 0.0 0.00 0.00 0.00 86 1024.7
20181115072537 20 235 0.0 0.0 0.00 0.00 0.00 86 1024.7
20181115072431 20 235 0.0 0.0 0.00 0.00 0.00 85 1024.8
20181115072341 20 235 0.0 0.0 0.00 0.00 0.00 85 1024.8
20181115072231 20 235 0.0 0.0 0.00 0.00 0.00 85 1024.8
20181115072137 20 235 0.0 0.0 0.00 0.00 0.00 85 1024.8
20181115072027 20 235 0.0 0.0 0.00 0.00 0.00 85 1024.8
20181115071941 20 235 0.0 0.0 0.00 0.00 0.00 85 1024.8
20181115071831 20 235 0.0 0.0 0.00 0.00 0.00 85 1024.8
20181115071741 20 235 0.0 0.0 0.00 0.00 0.00 85 1024.8
20181115071627 20 235 0.0 0.0 0.00 0.00 0.00 85 1024.8
20181115071536 20 235 0.0 0.0 0.00 0.00 0.00 85 1024.8
20181115071430 20 235 0.0 0.0 0.00 0.00 0.00 85 1024.8
20181115071340 20 235 0.0 0.0 0.00 0.00 0.00 85 1024.8
20181115071230 20 235 0.0 0.0 0.00 0.00 0.00 85 1024.8
20181115071138 20 235 0.0 0.0 0.00 0.00 0.00 85 1024.8
20181115071027 20 235 0.0 0.0 0.00 0.00 0.00 85 1024.9
20181115070936 20 236 0.0 0.0 0.00 0.00 0.00 85 1024.9
20181115070829 20 235 0.0 0.0 0.00 0.00 0.00 84 1024.9
20181115070738 20 235 0.0 0.0 0.00 0.00 0.00 84 1024.8
20181115070644 20 235 0.0 0.0 0.00 0.00 0.00 84 1024.9
20181115070534 20 235 0.0 0.0 0.00 0.00 0.00 84 1024.9
20181115070443 20 236 0.0 0.0 0.00 0.00 0.00 84 1024.9
20181115070336 20 235 0.0 0.0 0.00 0.00 0.00 84 1024.9
20181115070259 20 235 0.0 0.0 0.00 0.00 0.00 84 1024.8
20181115070130 20 237 0.0 0.0 0.00 0.00 0.00 84 1024.8
20181115070040 20 237 0.0 0.0 0.00 0.00 0.00 84 1024.9
20181115065930 20 237 0.0 0.0 0.00 0.00 0.00 84 1024.8
20181115065843 20 237 0.0 0.0 0.00 0.00 0.00 84 1024.9
20181115065734 20 237 0.0 0.0 0.00 0.00 0.00 84 1024.8
20181115065640 20 237 0.0 0.0 0.00 0.00 0.00 84 1024.9
20181115065530 20 237 0.0 0.0 0.00 0.00 0.00 83 1024.9
20181115065440 20 237 0.0 0.0 0.00 0.00 0.00 83 1024.9
20181115065334 20 236 0.0 0.0 0.00 0.00 0.00 83 1024.8
20181115065243 20 237 0.0 0.0 0.00 0.00 0.00 83 1024.9
20181115065130 20 237 0.0 0.0 0.00 0.00 0.00 83 1025.0
20181115065038 20 237 0.0 0.0 0.00 0.00 0.00 83 1025.0
20181115064928 20 237 0.0 0.0 0.00 0.00 0.00 83 1025.0
20181115064838 20 237 0.0 0.0 0.00 0.00 0.00 83 1025.0
20181115064731 20 237 0.0 0.0 0.00 0.00 0.00 83 1025.0
20181115064638 20 237 0.0 0.0 0.00 0.00 0.00 83 1025.0
20181115064527 20 237 0.0 0.0 0.00 0.00 0.00 83 1025.1
20181115064437 20 237 0.0 0.0 0.00 0.00 0.00 83 1025.1
20181115064327 20 237 0.0 0.0 0.00 0.00 0.00 82 1025.1
20181115064242 20 237 0.0 0.0 0.00 0.00 0.00 82 1025.2
20181115064127 21 236 0.0 0.0 0.00 0.00 0.00 82 1025.2
20181115064037 21 237 0.0 0.0 0.00 0.00 0.00 82 1025.2
20181115063927 21 237 0.0 0.0 0.00 0.00 0.00 82 1025.2
20181115063837 21 237 0.0 0.0 0.00 0.00 0.00 82 1025.2
20181115063731 21 237 0.0 0.0 0.00 0.00 0.00 82 1025.3
20181115063638 21 237 0.0 0.0 0.00 0.00 0.00 81 1025.3
20181115063529 21 237 0.0 0.0 0.00 0.00 0.00 81 1025.3
20181115063438 21 237 0.0 0.0 0.00 0.00 0.00 81 1025.3
20181115063328 21 237 0.0 0.0 0.00 0.00 0.00 81 1025.3
20181115063241 21 236 0.0 0.0 0.00 0.00 0.00 81 1025.3
20181115063127 21 237 0.0 0.0 0.00 0.00 0.00 81 1025.3
20181115063037 21 237 0.0 0.0 0.00 0.00 0.00 81 1025.3
20181115062927 21 236 0.0 0.0 0.00 0.00 0.00 81 1025.3
20181115062836 22 237 0.0 0.0 0.00 0.00 0.00 81 1025.3
20181115062730 22 237 0.0 0.0 0.00 0.00 0.00 81 1025.3
20181115062637 22 237 0.0 0.0 0.00 0.00 0.00 81 1025.4
20181115062527 22 82 0.0 0.0 0.00 0.00 0.00 81 1025.4
20181115062437 22 82 0.0 0.0 0.00 0.00 0.00 81 1025.4
20181115062327 22 82 0.0 0.0 0.00 0.00 0.00 81 1025.5
20181115062237 22 82 0.0 0.0 0.00 0.00 0.00 81 1025.5
20181115062127 22 83 0.0 0.0 0.00 0.00 0.00 81 1025.5
20181115062037 22 83 0.0 0.0 0.00 0.00 0.00 81 1025.5
20181115061927 22 83 0.0 0.0 0.00 0.00 0.00 81 1025.5
20181115061837 22 83 0.0 0.0 0.00 0.00 0.00 81 1025.5
20181115061728 22 83 0.0 0.0 0.00 0.00 0.00 81 1025.4
20181115061641 22 83 0.0 0.0 0.00 0.00 0.00 81 1025.5
20181115061530 22 83 0.0 0.0 0.00 0.00 0.00 81 1025.5
20181115061440 22 83 0.0 0.0 0.00 0.00 0.00 81 1025.5
20181115061331 21 83 0.0 0.0 0.00 0.00 0.00 81 1025.5
20181115061242 21 83 0.0 0.0 0.00 0.00 0.00 81 1025.5
20181115061133 21 83 0.0 0.0 0.00 0.00 0.00 81 1025.5
20181115061044 21 83 0.0 0.0 0.00 0.00 0.00 81 1025.5
20181115060935 21 83 0.0 0.0 0.00 0.00 0.00 81 1025.5
20181115060826 21 83 0.0 0.0 0.00 0.00 0.00 81 1025.6
20181115060734 21 83 0.0 0.0 0.00 0.00 0.00 81 1025.6
20181115060643 21 83 0.0 0.0 0.00 0.00 0.00 81 1025.5
20181115060533 21 83 0.0 0.0 0.00 0.00 0.00 81 1025.5
20181115060442 21 83 0.0 0.0 0.00 0.00 0.00 81 1025.5
20181115060331 21 83 0.0 0.0 0.00 0.00 0.00 81 1025.5
20181115060254 21 83 0.0 0.0 0.00 0.00 0.00 81 1025.5
20181115060129 21 83 0.0 0.0 0.00 0.00 0.00 81 1025.6
20181115060038 21 83 0.0 0.0 0.00 0.00 0.00 81 1025.6
20181115055927 21 83 0.0 0.0 0.00 0.00 0.00 81 1025.6
20181115055836 21 83 0.0 0.0 0.00 0.00 0.00 81 1025.6